Observation data for New Home on 11/09/2019      Previous  Date       Current Mesonet Observations  Soil Data  Daily Summary Page  Observations in Plain Language
KNH1 090600Z 26004KT 04/04 A3031 RMK A01 T00430041  RH  099%=      5-min Rain = 0
KNH1 090601Z 26004KT 04/04 A3031 RMK A01 T00420040  RH  099%=      5-min Rain = 0
KNH1 090602Z 26004KT 04/04 A3031 RMK A01 T00420040  RH  099%=      5-min Rain = 0
KNH1 090603Z 26004KT 04/04 A3031 RMK A01 T00420040  RH  099%=      5-min Rain = 0
KNH1 090604Z 25005KT 04/04 A3031 RMK A01 T00420040  RH  099%=      5-min Rain = 0
KNH1 090605Z 25005KT 04/04 A3031 RMK A01 T00420040  RH  099%=      5-min Rain = 0
KNH1 090606Z 25005KT 04/04 A3031 RMK A01 T00420041  RH  099%=      5-min Rain = 0
KNH1 090607Z 25005KT 04/04 A3031 RMK A01 T00420041  RH  099%=      5-min Rain = 0
KNH1 090608Z 25005KT 04/04 A3031 RMK A01 T00430041  RH  099%=      5-min Rain = 0
KNH1 090609Z 25005KT 04/04 A3031 RMK A01 T00430041  RH  099%=      5-min Rain = 0
KNH1 090610Z 25005KT 04/04 A3031 RMK A01 T00430041  RH  099%=      5-min Rain = 0
KNH1 090611Z 25005KT 04/04 A3031 RMK A01 T00430041  RH  099%=      5-min Rain = 0
KNH1 090612Z 25005KT 04/04 A3031 RMK A01 T00430041  RH  099%=      5-min Rain = 0
KNH1 090613Z 25005KT 04/04 A3031 RMK A01 T00430041  RH  099%=      5-min Rain = 0
KNH1 090614Z 25005KT 04/04 A3031 RMK A01 T00430041  RH  099%=      5-min Rain = 0
KNH1 090615Z 25005KT 04/04 A3031 RMK A01 T00430041  RH  099%=      5-min Rain = 0
KNH1 090616Z 25005KT 04/04 A3031 RMK A01 T00420041  RH  099%=      5-min Rain = 0
KNH1 090617Z 25005KT 04/04 A3031 RMK A01 T00420041  RH  099%=      5-min Rain = 0
KNH1 090618Z 25005KT 04/04 A3031 RMK A01 T00420040  RH  099%=      5-min Rain = 0
KNH1 090619Z 25005KT 04/04 A3031 RMK A01 T00420040  RH  099%=      5-min Rain = 0
KNH1 090620Z 24006KT 04/04 A3031 RMK A01 T00410040  RH  099%=      5-min Rain = 0
KNH1 090621Z 24006KT 04/04 A3031 RMK A01 T00410040  RH  099%=      5-min Rain = 0
KNH1 090622Z 24006KT 04/04 A3031 RMK A01 T00410040  RH  099%=      5-min Rain = 0
KNH1 090623Z 25006KT 04/04 A3031 RMK A01 T00410039  RH  099%=      5-min Rain = 0
KNH1 090624Z 25006KT 04/04 A3031 RMK A01 T00410039  RH  099%=      5-min Rain = 0
KNH1 090625Z 25006KT 04/04 A3031 RMK A01 T00410039  RH  099%=      5-min Rain = 0
KNH1 090626Z 25006KT 04/04 A3031 RMK A01 T00400039  RH  099%=      5-min Rain = 0
KNH1 090627Z 24006KT 04/04 A3031 RMK A01 T00400039  RH  099%=      5-min Rain = 0
KNH1 090628Z 24006KT 04/04 A3031 RMK A01 T00400039  RH  099%=      5-min Rain = 0
KNH1 090629Z 24006KT 04/04 A3031 RMK A01 T00410039  RH  099%=      5-min Rain = 0
KNH1 090630Z 24006KT 04/04 A3031 RMK A01 T00410040  RH  099%=      5-min Rain = 0
KNH1 090631Z 24006KT 04/04 A3031 RMK A01 T00410040  RH  099%=      5-min Rain = 0
KNH1 090632Z 24007KT 04/04 A3031 RMK A01 T00420040  RH  099%=      5-min Rain = 0
KNH1 090633Z 24006KT 04/04 A3031 RMK A01 T00420040  RH  099%=      5-min Rain = 0
KNH1 090634Z 24007KT 04/04 A3031 RMK A01 T00420040  RH  099%=      5-min Rain = 0
KNH1 090635Z 24007KT 04/04 A3031 RMK A01 T00420040  RH  099%=      5-min Rain = 0
KNH1 090636Z 24007KT 04/04 A3031 RMK A01 T00420040  RH  099%=      5-min Rain = 0
KNH1 090637Z 24007KT 04/04 A3031 RMK A01 T00420040  RH  099%=      5-min Rain = 0
KNH1 090638Z 24007KT 04/04 A3031 RMK A01 T00420041  RH  099%=      5-min Rain = 0
KNH1 090639Z 24007KT 04/04 A3031 RMK A01 T00420040  RH  099%=      5-min Rain = 0
KNH1 090640Z 24006KT 04/04 A3031 RMK A01 T00420040  RH  099%=      5-min Rain = 0
KNH1 090641Z 24006KT 04/04 A3031 RMK A01 T00420041  RH  099%=      5-min Rain = 0
KNH1 090642Z 24006KT 04/04 A3031 RMK A01 T00410040  RH  099%=      5-min Rain = 0
KNH1 090643Z 24006KT 04/04 A3031 RMK A01 T00410040  RH  099%=      5-min Rain = 0
KNH1 090644Z 24006KT 04/04 A3031 RMK A01 T00410040  RH  099%=      5-min Rain = 0
KNH1 090645Z 24006KT 04/04 A3031 RMK A01 T00410040  RH  099%=      5-min Rain = 0
KNH1 090646Z 24006KT 04/04 A3031 RMK A01 T00410040  RH  099%=      5-min Rain = 0
KNH1 090647Z 24006KT 04/04 A3031 RMK A01 T00420040  RH  099%=      5-min Rain = 0
KNH1 090648Z 24007KT 04/04 A3031 RMK A01 T00410040  RH  099%=      5-min Rain = 0
KNH1 090649Z 24007KT 04/04 A3031 RMK A01 T00420040  RH  099%=      5-min Rain = 0
KNH1 090650Z 24007KT 04/04 A3031 RMK A01 T00410040  RH  099%=      5-min Rain = 0
KNH1 090651Z 24007KT 04/04 A3031 RMK A01 T00420040  RH  099%=      5-min Rain = 0
KNH1 090652Z 24007KT 04/04 A3031 RMK A01 T00420040  RH  099%=      5-min Rain = 0
KNH1 090653Z 24007KT 04/04 A3031 RMK A01 T00420041  RH  099%=      5-min Rain = 0
KNH1 090654Z 24007KT 04/04 A3031 RMK A01 T00420041  RH  099%=      5-min Rain = 0
KNH1 090655Z 24007KT 04/04 A3031 RMK A01 T00420041  RH  099%=      5-min Rain = 0
KNH1 090656Z 24007KT 04/04 A3031 RMK A01 T00420041  RH  099%=      5-min Rain = 0
KNH1 090657Z 24007KT 04/04 A3031 RMK A01 T00430041  RH  099%=      5-min Rain = 0
KNH1 090658Z 24007KT 04/04 A3031 RMK A01 T00430041  RH  099%=      5-min Rain = 0
KNH1 090659Z 24007KT 04/04 A3031 RMK A01 T00430042  RH  099%=      5-min Rain = 0
KNH1 090700Z 24007KT 04/04 A3031 RMK A01 T00430042  RH  099%=      5-min Rain = 0
KNH1 090701Z 24007KT 04/04 A3031 RMK A01 T00430042  RH  099%=      5-min Rain = 0
KNH1 090702Z 24008KT 04/04 A3031 RMK A01 T00430042  RH  099%=      5-min Rain = 0
KNH1 090703Z 24007KT 04/04 A3031 RMK A01 T00440043  RH  099%=      5-min Rain = 0
KNH1 090704Z 23007KT 05/04 A3031 RMK A01 T00450043  RH  099%=      5-min Rain = 0
KNH1 090705Z 24007KT 05/04 A3031 RMK A01 T00450043  RH  099%=      5-min Rain = 0
KNH1 090706Z 23008KT 05/04 A3031 RMK A01 T00450044  RH  099%=      5-min Rain = 0
KNH1 090707Z 24008KT 05/05 A303 RMK A01 T00460045  RH  099%=      5-min Rain = 0
KNH1 090708Z 24008KT 05/05 A303 RMK A01 T00470046  RH  099%=      5-min Rain = 0
KNH1 090709Z 24008KT 05/05 A303 RMK A01 T00470046  RH  099%=      5-min Rain = 0
KNH1 090710Z 23008KT 05/05 A303 RMK A01 T00480047  RH  099%=      5-min Rain = 0
KNH1 090711Z 24008KT 05/05 A303 RMK A01 T00480047  RH  099%=      5-min Rain = 0
KNH1 090712Z 23008KT 05/05 A303 RMK A01 T00490048  RH  099%=      5-min Rain = 0
KNH1 090713Z 24009KT 05/05 A303 RMK A01 T00490048  RH  099%=      5-min Rain = 0
KNH1 090714Z 24009KT 05/05 A303 RMK A01 T00500049  RH  099%=      5-min Rain = 0
KNH1 090715Z 24008KT 05/05 A303 RMK A01 T00500049  RH  099%=      5-min Rain = 0
KNH1 090718Z 24008KT 05/05 A303 RMK A01 T00510050  RH  099%=      5-min Rain = 0
KNH1 090719Z 24008KT 05/05 A303 RMK A01 T00510050  RH  099%=      5-min Rain = 0
KNH1 090720Z 24008KT 05/05 A303 RMK A01 T00510050  RH  099%=      5-min Rain = 0
KNH1 090721Z 24008KT 05/05 A303 RMK A01 T00510050  RH  099%=      5-min Rain = 0
KNH1 090722Z 24008KT 05/05 A303 RMK A01 T00510050  RH  099%=      5-min Rain = 0
KNH1 090723Z 24008KT 05/05 A303 RMK A01 T00520051  RH  099%=      5-min Rain = 0
KNH1 090724Z 24008KT 05/05 A303 RMK A01 T00520051  RH  099%=      5-min Rain = 0
KNH1 090725Z 24009KT 05/05 A303 RMK A01 T00520051  RH  099%=      5-min Rain = 0
KNH1 090726Z 24008KT 05/05 A303 RMK A01 T00520051  RH  099%=      5-min Rain = 0
KNH1 090727Z 24009KT 05/05 A303 RMK A01 T00530051  RH  099%=      5-min Rain = 0
KNH1 090728Z 24009KT 05/05 A303 RMK A01 T00530051  RH  099%=      5-min Rain = 0
KNH1 090729Z 24008KT 05/05 A303 RMK A01 T00530052  RH  099%=      5-min Rain = 0
KNH1 090730Z 24008KT 05/05 A303 RMK A01 T00530051  RH  099%=      5-min Rain = 0
KNH1 090731Z 25008KT 05/05 A303 RMK A01 T00530051  RH  099%=      5-min Rain = 0
KNH1 090732Z 25008KT 05/05 A303 RMK A01 T00530052  RH  099%=      5-min Rain = 0
KNH1 090733Z 25008KT 05/05 A303 RMK A01 T00530052  RH  099%=      5-min Rain = 0
KNH1 090734Z 25008KT 05/05 A303 RMK A01 T00540052  RH  099%=      5-min Rain = 0
KNH1 090735Z 25009KT 05/05 A303 RMK A01 T00540052  RH  099%=      5-min Rain = 0
KNH1 090736Z 25008KT 05/05 A303 RMK A01 T00540052  RH  099%=      5-min Rain = 0
KNH1 090737Z 25008KT 05/05 A303 RMK A01 T00540052  RH  099%=      5-min Rain = 0
KNH1 090738Z 25008KT 05/05 A303 RMK A01 T00540052  RH  099%=      5-min Rain = 0
KNH1 090739Z 25008KT 05/05 A303 RMK A01 T00540052  RH  099%=      5-min Rain = 0
KNH1 090740Z 25008KT 05/05 A3029 RMK A01 T00530051  RH  099%=      5-min Rain = 0
KNH1 090741Z 25008KT 05/05 A3029 RMK A01 T00530051  RH  099%=      5-min Rain = 0
KNH1 090742Z 25009KT 05/05 A3029 RMK A01 T00530051  RH  099%=      5-min Rain = 0
KNH1 090743Z 25008KT 05/05 A3029 RMK A01 T00530051  RH  099%=      5-min Rain = 0
KNH1 090744Z 25008KT 05/05 A3029 RMK A01 T00530051  RH  099%=      5-min Rain = 0
KNH1 090745Z 25008KT 05/05 A3029 RMK A01 T00530051  RH  099%=      5-min Rain = 0
KNH1 090746Z 25008KT 05/05 A3029 RMK A01 T00530051  RH  099%=      5-min Rain = 0
KNH1 090747Z 24008KT 05/05 A3029 RMK A01 T00530050  RH  098%=      5-min Rain = 0
KNH1 090748Z 24009KT 05/05 A3029 RMK A01 T00530051  RH  098%=      5-min Rain = 0
KNH1 090749Z 24008KT 05/05 A3029 RMK A01 T00530051  RH  098%=      5-min Rain = 0
KNH1 090750Z 24008KT 05/05 A3029 RMK A01 T00530050  RH  098%=      5-min Rain = 0
KNH1 090751Z 24008KT 05/05 A3029 RMK A01 T00530051  RH  098%=      5-min Rain = 0
KNH1 090752Z 24008KT 05/05 A3029 RMK A01 T00530051  RH  098%=      5-min Rain = 0
KNH1 090753Z 25008KT 05/05 A3029 RMK A01 T00530051  RH  098%=      5-min Rain = 0
KNH1 090754Z 25008KT 05/05 A3029 RMK A01 T00530051  RH  098%=      5-min Rain = 0
KNH1 090755Z 25008KT 05/05 A3029 RMK A01 T00530051  RH  098%=      5-min Rain = 0
KNH1 090756Z 25008KT 05/05 A3029 RMK A01 T00530050  RH  098%=      5-min Rain = 0
KNH1 090757Z 25007KT 05/05 A3029 RMK A01 T00530050  RH  098%=      5-min Rain = 0
KNH1 090758Z 25007KT 05/05 A3029 RMK A01 T00520050  RH  098%=      5-min Rain = 0
KNH1 090759Z 25007KT 05/05 A3029 RMK A01 T00520050  RH  098%=      5-min Rain = 0
KNH1 090800Z 25008KT 05/05 A3029 RMK A01 T00520049  RH  098%=      5-min Rain = 0
KNH1 090801Z 25007KT 05/05 A3029 RMK A01 T00520049  RH  098%=      5-min Rain = 0
KNH1 090802Z 25007KT 05/05 A3028 RMK A01 T00520049  RH  098%=      5-min Rain = 0
KNH1 090803Z 25007KT 05/05 A3028 RMK A01 T00520049  RH  098%=      5-min Rain = 0
KNH1 090804Z 25007KT 05/05 A3028 RMK A01 T00510049  RH  098%=      5-min Rain = 0
KNH1 090805Z 26007KT 05/05 A3028 RMK A01 T00510049  RH  098%=      5-min Rain = 0
KNH1 090806Z 26007KT 05/05 A3028 RMK A01 T00510048  RH  098%=      5-min Rain = 0
KNH1 090807Z 26007KT 05/05 A3028 RMK A01 T00500048  RH  098%=      5-min Rain = 0
KNH1 090808Z 26006KT 05/05 A3028 RMK A01 T00500047  RH  098%=      5-min Rain = 0
KNH1 090809Z 25007KT 05/05 A3028 RMK A01 T00500047  RH  098%=      5-min Rain = 0
KNH1 090810Z 25007KT 05/05 A3028 RMK A01 T00500047  RH  098%=      5-min Rain = 0
KNH1 090811Z 25007KT 05/05 A3028 RMK A01 T00500047  RH  098%=      5-min Rain = 0
KNH1 090812Z 25007KT 05/05 A3028 RMK A01 T00500047  RH  098%=      5-min Rain = 0
KNH1 090813Z 25007KT 05/05 A3028 RMK A01 T00500047  RH  098%=      5-min Rain = 0
KNH1 090814Z 24007KT 05/05 A3028 RMK A01 T00490047  RH  098%=      5-min Rain = 0
KNH1 090815Z 25007KT 05/05 A3028 RMK A01 T00490046  RH  098%=      5-min Rain = 0
KNH1 090816Z 25007KT 05/05 A3028 RMK A01 T00490046  RH  098%=      5-min Rain = 0
KNH1 090817Z 25006KT 05/05 A3028 RMK A01 T00480046  RH  098%=      5-min Rain = 0
KNH1 090818Z 24007KT 05/05 A3028 RMK A01 T00480045  RH  098%=      5-min Rain = 0
KNH1 090819Z 25006KT 05/05 A3028 RMK A01 T00480045  RH  098%=      5-min Rain = 0
KNH1 090820Z 25006KT 05/05 A3028 RMK A01 T00470045  RH  098%=      5-min Rain = 0
KNH1 090821Z 25007KT 05/04 A3028 RMK A01 T00470044  RH  098%=      5-min Rain = 0
KNH1 090822Z 25007KT 05/04 A3028 RMK A01 T00460044  RH  098%=      5-min Rain = 0
KNH1 090823Z 25006KT 05/04 A3028 RMK A01 T00460043  RH  098%=      5-min Rain = 0
KNH1 090824Z 25006KT 05/04 A3028 RMK A01 T00460043  RH  098%=      5-min Rain = 0
KNH1 090825Z 25007KT 05/04 A3028 RMK A01 T00460043  RH  098%=      5-min Rain = 0
KNH1 090826Z 25007KT 05/04 A3028 RMK A01 T00460043  RH  098%=      5-min Rain = 0
KNH1 090827Z 25007KT 05/04 A3028 RMK A01 T00460043  RH  098%=      5-min Rain = 0
KNH1 090828Z 25006KT 05/04 A3028 RMK A01 T00450043  RH  098%=      5-min Rain = 0
KNH1 090829Z 25006KT 05/04 A3028 RMK A01 T00450043  RH  098%=      5-min Rain = 0
KNH1 090830Z 25006KT 05/04 A3028 RMK A01 T00450042  RH  098%=      5-min Rain = 0
KNH1 090831Z 25006KT 05/04 A3028 RMK A01 T00450042  RH  098%=      5-min Rain = 0
KNH1 090832Z 25006KT 05/04 A3028 RMK A01 T00450042  RH  098%=      5-min Rain = 0
KNH1 090833Z 25006KT 04/04 A3028 RMK A01 T00440041  RH  098%=      5-min Rain = 0
KNH1 090834Z 25006KT 04/04 A3028 RMK A01 T00440041  RH  098%=      5-min Rain = 0
KNH1 090835Z 25006KT 04/04 A3028 RMK A01 T00440041  RH  098%=      5-min Rain = 0
KNH1 090836Z 25006KT 04/04 A3028 RMK A01 T00440041  RH  098%=      5-min Rain = 0
KNH1 090837Z 25006KT 04/04 A3028 RMK A01 T00440041  RH  098%=      5-min Rain = 0
KNH1 090838Z 25006KT 04/04 A3028 RMK A01 T00430041  RH  098%=      5-min Rain = 0
KNH1 090839Z 25006KT 04/04 A3027 RMK A01 T00430041  RH  098%=      5-min Rain = 0
KNH1 090840Z 25006KT 04/04 A3027 RMK A01 T00420040  RH  098%=      5-min Rain = 0
KNH1 090841Z 25006KT 04/04 A3027 RMK A01 T00420040  RH  098%=      5-min Rain = 0
KNH1 090842Z 25006KT 04/04 A3027 RMK A01 T00420040  RH  098%=      5-min Rain = 0
KNH1 090843Z 25006KT 04/04 A3027 RMK A01 T00420040  RH  098%=      5-min Rain = 0
KNH1 090844Z 25006KT 04/04 A3027 RMK A01 T00420040  RH  098%=      5-min Rain = 0
KNH1 090845Z 25006KT 04/04 A3027 RMK A01 T00420040  RH  098%=      5-min Rain = 0
KNH1 090846Z 25005KT 04/04 A3027 RMK A01 T00420040  RH  098%=      5-min Rain = 0
KNH1 090847Z 25005KT 04/04 A3027 RMK A01 T00420039  RH  098%=      5-min Rain = 0
KNH1 090848Z 25005KT 04/04 A3027 RMK A01 T00410039  RH  098%=      5-min Rain = 0
KNH1 090849Z 25005KT 04/04 A3027 RMK A01 T00410039  RH  098%=      5-min Rain = 0
KNH1 090850Z 25006KT 04/04 A3027 RMK A01 T00410039  RH  098%=      5-min Rain = 0
KNH1 090851Z 24006KT 04/04 A3027 RMK A01 T00410039  RH  098%=      5-min Rain = 0
KNH1 090852Z 24006KT 04/04 A3027 RMK A01 T00410039  RH  098%=      5-min Rain = 0
KNH1 090853Z 24006KT 04/04 A3027 RMK A01 T00420039  RH  098%=      5-min Rain = 0
KNH1 090854Z 24006KT 04/04 A3027 RMK A01 T00410039  RH  098%=      5-min Rain = 0
KNH1 090855Z 24006KT 04/04 A3027 RMK A01 T00410039  RH  099%=      5-min Rain = 0
KNH1 090856Z 25005KT 04/04 A3027 RMK A01 T00410039  RH  098%=      5-min Rain = 0
KNH1 090857Z 24005KT 04/04 A3027 RMK A01 T00410039  RH  098%=      5-min Rain = 0
KNH1 090858Z 24005KT 04/04 A3027 RMK A01 T00400038  RH  098%=      5-min Rain = 0
KNH1 090859Z 24005KT 04/04 A3027 RMK A01 T00400038  RH  099%=      5-min Rain = 0
KNH1 090900Z 25005KT 04/04 A3027 RMK A01 T00400038  RH  099%=      5-min Rain = 0
KNH1 090901Z 25005KT 04/04 A3027 RMK A01 T00400038  RH  098%=      5-min Rain = 0
KNH1 090902Z 25005KT 04/04 A3027 RMK A01 T00400037  RH  099%=      5-min Rain = 0
KNH1 090903Z 25005KT 04/04 A3027 RMK A01 T00400037  RH  099%=      5-min Rain = 0
KNH1 090904Z 25005KT 04/04 A3027 RMK A01 T00390037  RH  099%=      5-min Rain = 0
KNH1 090905Z 25004KT 04/04 A3027 RMK A01 T00390037  RH  099%=      5-min Rain = 0
KNH1 090906Z 25004KT 04/04 A3027 RMK A01 T00390037  RH  099%=      5-min Rain = 0
KNH1 090907Z 25004KT 04/04 A3027 RMK A01 T00390036  RH  099%=      5-min Rain = 0
KNH1 090908Z 26004KT 04/04 A3027 RMK A01 T00380036  RH  099%=      5-min Rain = 0
KNH1 090909Z 26004KT 04/04 A3027 RMK A01 T00380036  RH  099%=      5-min Rain = 0
KNH1 090910Z 26004KT 04/04 A3027 RMK A01 T00370035  RH  099%=      5-min Rain = 0
KNH1 090911Z 26004KT 04/04 A3027 RMK A01 T00370035  RH  099%=      5-min Rain = 0
KNH1 090912Z 26005KT 04/04 A3027 RMK A01 T00370035  RH  099%=      5-min Rain = 0
KNH1 090913Z 26005KT 04/03 A3027 RMK A01 T00370034  RH  099%=      5-min Rain = 0
KNH1 090914Z 26005KT 04/03 A3026 RMK A01 T00360034  RH  099%=      5-min Rain = 0
KNH1 090915Z 26005KT 04/03 A3026 RMK A01 T00350033  RH  099%=      5-min Rain = 0
KNH1 090916Z 26004KT 04/03 A3026 RMK A01 T00350033  RH  099%=      5-min Rain = 0
KNH1 090917Z 27004KT 04/03 A3026 RMK A01 T00350033  RH  099%=      5-min Rain = 0
KNH1 090918Z 27004KT 04/03 A3026 RMK A01 T00350033  RH  099%=      5-min Rain = 0
KNH1 090919Z 27004KT 04/03 A3026 RMK A01 T00350033  RH  099%=      5-min Rain = 0
KNH1 090920Z 27004KT 04/03 A3026 RMK A01 T00350034  RH  099%=      5-min Rain = 0
KNH1 090921Z 27004KT 04/03 A3026 RMK A01 T00360034  RH  099%=      5-min Rain = 0
KNH1 090922Z 27004KT 04/03 A3027 RMK A01 T00350034  RH  099%=      5-min Rain = 0
KNH1 090923Z 27005KT 04/03 A3027 RMK A01 T00350033  RH  099%=      5-min Rain = 0
KNH1 090924Z 27005KT 04/03 A3027 RMK A01 T00350034  RH  099%=      5-min Rain = 0
KNH1 090925Z 28005KT 04/03 A3027 RMK A01 T00350034  RH  099%=      5-min Rain = 0
KNH1 090926Z 28005KT 04/03 A3027 RMK A01 T00360034  RH  099%=      5-min Rain = 0
KNH1 090927Z 28005KT 04/03 A3026 RMK A01 T00350033  RH  099%=      5-min Rain = 0
KNH1 090928Z 28005KT 04/03 A3026 RMK A01 T00350034  RH  099%=      5-min Rain = 0
KNH1 090929Z 28005KT 04/03 A3026 RMK A01 T00350033  RH  099%=      5-min Rain = 0
KNH1 090930Z 29005KT 04/03 A3026 RMK A01 T00350033  RH  099%=      5-min Rain = 0
KNH1 090931Z 29005KT 04/03 A3026 RMK A01 T00350033  RH  099%=      5-min Rain = 0
KNH1 090932Z 29005KT 04/03 A3026 RMK A01 T00350033  RH  099%=      5-min Rain = 0
KNH1 090933Z 29005KT 04/03 A3026 RMK A01 T00350033  RH  099%=      5-min Rain = 0
KNH1 090934Z 29005KT 04/03 A3026 RMK A01 T00350033  RH  099%=      5-min Rain = 0
KNH1 090935Z 29005KT 04/03 A3026 RMK A01 T00350033  RH  099%=      5-min Rain = 0
KNH1 090936Z 29005KT 04/03 A3026 RMK A01 T00350033  RH  099%=      5-min Rain = 0
KNH1 090937Z 29005KT 04/03 A3026 RMK A01 T00350034  RH  099%=      5-min Rain = 0
KNH1 090938Z 28005KT 04/03 A3026 RMK A01 T00360034  RH  099%=      5-min Rain = 0
KNH1 090939Z 29006KT 04/03 A3026 RMK A01 T00360034  RH  099%=      5-min Rain = 0
KNH1 090940Z 29005KT 04/03 A3026 RMK A01 T00360034  RH  099%=      5-min Rain = 0
KNH1 090941Z 29005KT 04/03 A3026 RMK A01 T00360034  RH  099%=      5-min Rain = 0
KNH1 090942Z 29005KT 04/03 A3026 RMK A01 T00350034  RH  099%=      5-min Rain = 0
KNH1 090943Z 29005KT 04/03 A3026 RMK A01 T00350034  RH  099%=      5-min Rain = 0
KNH1 090944Z 29005KT 04/03 A3026 RMK A01 T00350034  RH  099%=      5-min Rain = 0
KNH1 090945Z 29005KT 04/03 A3026 RMK A01 T00350034  RH  099%=      5-min Rain = 0
KNH1 090946Z 29005KT 04/03 A3026 RMK A01 T00350033  RH  099%=      5-min Rain = 0
KNH1 090947Z 29005KT 04/03 A3027 RMK A01 T00350033  RH  099%=      5-min Rain = 0
KNH1 090948Z 29005KT 04/03 A3027 RMK A01 T00350033  RH  099%=      5-min Rain = 0
KNH1 090949Z 29005KT 04/03 A3027 RMK A01 T00350033  RH  099%=      5-min Rain = 0
KNH1 090950Z 29005KT 04/03 A3027 RMK A01 T00350033  RH  099%=      5-min Rain = 0
KNH1 090951Z 30004KT 03/03 A3027 RMK A01 T00340033  RH  099%=      5-min Rain = 0
KNH1 090952Z 30005KT 03/03 A3027 RMK A01 T00340033  RH  099%=      5-min Rain = 0
KNH1 090953Z 30004KT 04/03 A3027 RMK A01 T00350033  RH  099%=      5-min Rain = 0
KNH1 090954Z 30003KT 04/04 A3027 RMK A01 T00360035  RH  099%=      5-min Rain = 0
KNH1 090955Z 30004KT 04/04 A3027 RMK A01 T00370035  RH  099%=      5-min Rain = 0
KNH1 090956Z 30004KT 04/04 A3027 RMK A01 T00370035  RH  099%=      5-min Rain = 0
KNH1 090957Z 30004KT 04/04 A3027 RMK A01 T00370035  RH  099%=      5-min Rain = 0
KNH1 090958Z 30004KT 04/03 A3027 RMK A01 T00360034  RH  099%=      5-min Rain = 0
KNH1 090959Z 30004KT 03/03 A3026 RMK A01 T00340033  RH  099%=      5-min Rain = 0
KNH1 091000Z 29003KT 03/03 A3026 RMK A01 T00340032  RH  099%=      5-min Rain = 0
KNH1 091001Z 29003KT 03/03 A3026 RMK A01 T00330031  RH  098%=      5-min Rain = 0
KNH1 091002Z 29004KT 03/03 A3026 RMK A01 T00330030  RH  098%=      5-min Rain = 0
KNH1 091003Z 28004KT 03/03 A3026 RMK A01 T00330030  RH  098%=      5-min Rain = 0
KNH1 091004Z 28004KT 03/03 A3026 RMK A01 T00330031  RH  099%=      5-min Rain = 0
KNH1 091005Z 28004KT 03/03 A3026 RMK A01 T00330031  RH  099%=      5-min Rain = 0
KNH1 091006Z 29004KT 03/03 A3026 RMK A01 T00330031  RH  099%=      5-min Rain = 0
KNH1 091007Z 28004KT 03/03 A3026 RMK A01 T00330031  RH  099%=      5-min Rain = 0
KNH1 091008Z 29004KT 03/03 A3026 RMK A01 T00330030  RH  099%=      5-min Rain = 0
KNH1 091009Z 28004KT 03/03 A3026 RMK A01 T00320030  RH  099%=      5-min Rain = 0
KNH1 091010Z 28004KT 03/03 A3026 RMK A01 T00320030  RH  099%=      5-min Rain = 0
KNH1 091011Z 28004KT 03/03 A3026 RMK A01 T00320030  RH  099%=      5-min Rain = 0
KNH1 091012Z 27004KT 03/03 A3026 RMK A01 T00320030  RH  099%=      5-min Rain = 0
KNH1 091013Z 27004KT 03/03 A3026 RMK A01 T00320030  RH  099%=      5-min Rain = 0
KNH1 091014Z 27004KT 03/03 A3026 RMK A01 T00320030  RH  099%=      5-min Rain = 0
KNH1 091015Z 27004KT 03/03 A3026 RMK A01 T00320030  RH  099%=      5-min Rain = 0
KNH1 091016Z 27004KT 03/03 A3026 RMK A01 T00320030  RH  099%=      5-min Rain = 0
KNH1 091017Z 27004KT 03/03 A3026 RMK A01 T00320030  RH  099%=      5-min Rain = 0
KNH1 091018Z 27004KT 03/03 A3026 RMK A01 T00320030  RH  099%=      5-min Rain = 0
KNH1 091019Z 27004KT 03/03 A3026 RMK A01 T00320030  RH  099%=      5-min Rain = 0
KNH1 091020Z 27004KT 03/03 A3026 RMK A01 T00320030  RH  099%=      5-min Rain = 0
KNH1 091021Z 27005KT 03/03 A3026 RMK A01 T00320030  RH  099%=      5-min Rain = 0
KNH1 091022Z 27005KT 03/03 A3026 RMK A01 T00320030  RH  099%=      5-min Rain = 0
KNH1 091023Z 27005KT 03/03 A3026 RMK A01 T00320030  RH  099%=      5-min Rain = 0
KNH1 091024Z 27005KT 03/03 A3026 RMK A01 T00320030  RH  099%=      5-min Rain = 0
KNH1 091025Z 27005KT 03/03 A3026 RMK A01 T00320030  RH  099%=      5-min Rain = 0
KNH1 091026Z 27005KT 03/03 A3026 RMK A01 T00320030  RH  099%=      5-min Rain = 0
KNH1 091027Z 27004KT 03/03 A3026 RMK A01 T00320030  RH  099%=      5-min Rain = 0
KNH1 091028Z 27004KT 03/03 A3026 RMK A01 T00320030  RH  099%=      5-min Rain = 0
KNH1 091029Z 27004KT 03/03 A3026 RMK A01 T00320030  RH  099%=      5-min Rain = 0
KNH1 091030Z 27004KT 03/03 A3026 RMK A01 T00320030  RH  099%=      5-min Rain = 0
KNH1 091031Z 27004KT 03/03 A3026 RMK A01 T00320030  RH  099%=      5-min Rain = 0
KNH1 091032Z 28004KT 03/03 A3026 RMK A01 T00310030  RH  099%=      5-min Rain = 0
KNH1 091033Z 28004KT 03/03 A3026 RMK A01 T00310029  RH  099%=      5-min Rain = 0
KNH1 091034Z 28004KT 03/03 A3026 RMK A01 T00320030  RH  099%=      5-min Rain = 0
KNH1 091035Z 28004KT 03/03 A3026 RMK A01 T00320030  RH  099%=      5-min Rain = 0
KNH1 091036Z 29004KT 03/03 A3026 RMK A01 T00320030  RH  099%=      5-min Rain = 0
KNH1 091037Z 29004KT 03/03 A3026 RMK A01 T00320030  RH  099%=      5-min Rain = 0
KNH1 091038Z 29004KT 03/03 A3026 RMK A01 T00320030  RH  099%=      5-min Rain = 0
KNH1 091039Z 29004KT 03/03 A3026 RMK A01 T00320030  RH  099%=      5-min Rain = 0
KNH1 091040Z 28004KT 03/03 A3026 RMK A01 T00320030  RH  099%=      5-min Rain = 0
KNH1 091041Z 28004KT 03/03 A3026 RMK A01 T00320030  RH  099%=      5-min Rain = 0
KNH1 091042Z 28004KT 03/03 A3026 RMK A01 T00330031  RH  099%=      5-min Rain = 0
KNH1 091043Z 28004KT 03/03 A3026 RMK A01 T00340032  RH  099%=      5-min Rain = 0
KNH1 091044Z 28004KT 03/03 A3026 RMK A01 T00340032  RH  099%=      5-min Rain = 0
KNH1 091045Z 28004KT 03/03 A3026 RMK A01 T00340032  RH  099%=      5-min Rain = 0
KNH1 091046Z 29004KT 03/03 A3026 RMK A01 T00340032  RH  099%=      5-min Rain = 0
KNH1 091047Z 28004KT 03/03 A3026 RMK A01 T00340032  RH  099%=      5-min Rain = 0
KNH1 091048Z 28004KT 03/03 A3026 RMK A01 T00330031  RH  099%=      5-min Rain = 0
KNH1 091049Z 28004KT 03/03 A3026 RMK A01 T00330031  RH  099%=      5-min Rain = 0
KNH1 091050Z 28004KT 03/03 A3026 RMK A01 T00330031  RH  099%=      5-min Rain = 0
KNH1 091051Z 28004KT 03/03 A3026 RMK A01 T00320031  RH  099%=      5-min Rain = 0
KNH1 091052Z 28004KT 03/03 A3026 RMK A01 T00320030  RH  099%=      5-min Rain = 0
KNH1 091053Z 28004KT 03/03 A3026 RMK A01 T00310030  RH  099%=      5-min Rain = 0
KNH1 091054Z 27004KT 03/03 A3026 RMK A01 T00310030  RH  099%=      5-min Rain = 0
KNH1 091055Z 27004KT 03/03 A3026 RMK A01 T00310030  RH  099%=      5-min Rain = 0
KNH1 091056Z 27004KT 03/03 A3026 RMK A01 T00310030  RH  099%=      5-min Rain = 0
KNH1 091057Z 27004KT 03/03 A3026 RMK A01 T00310029  RH  099%=      5-min Rain = 0
KNH1 091058Z 26004KT 03/03 A3026 RMK A01 T00310029  RH  099%=      5-min Rain = 0
KNH1 091059Z 26005KT 03/03 A3026 RMK A01 T00310029  RH  099%=      5-min Rain = 0
KNH1 091100Z 27005KT 03/03 A3026 RMK A01 T00310029  RH  099%=      5-min Rain = 0
KNH1 091101Z 26006KT 03/03 A3026 RMK A01 T00310029  RH  099%=      5-min Rain = 0
KNH1 091102Z 26005KT 03/03 A3026 RMK A01 T00310029  RH  099%=      5-min Rain = 0
KNH1 091103Z 26005KT 03/03 A3026 RMK A01 T00310029  RH  099%=      5-min Rain = 0
KNH1 091104Z 27005KT 03/03 A3026 RMK A01 T00310029  RH  099%=      5-min Rain = 0
KNH1 091105Z 27005KT 03/03 A3026 RMK A01 T00310029  RH  099%=      5-min Rain = 0
KNH1 091106Z 27005KT 03/03 A3026 RMK A01 T00300029  RH  099%=      5-min Rain = 0
KNH1 091107Z 27005KT 03/03 A3026 RMK A01 T00300028  RH  099%=      5-min Rain = 0
KNH1 091108Z 27005KT 03/03 A3026 RMK A01 T00290027  RH  099%=      5-min Rain = 0
KNH1 091109Z 26005KT 03/03 A3026 RMK A01 T00290027  RH  099%=      5-min Rain = 0
KNH1 091110Z 26005KT 03/03 A3026 RMK A01 T00290027  RH  099%=      5-min Rain = 0
KNH1 091111Z 26005KT 03/03 A3026 RMK A01 T00290027  RH  099%=      5-min Rain = 0
KNH1 091112Z 26005KT 03/03 A3026 RMK A01 T00300028  RH  099%=      5-min Rain = 0
KNH1 091113Z 26005KT 03/03 A3026 RMK A01 T00300028  RH  099%=      5-min Rain = 0
KNH1 091114Z 26005KT 03/03 A3026 RMK A01 T00300028  RH  099%=      5-min Rain = 0
KNH1 091115Z 26005KT 03/03 A3026 RMK A01 T00300028  RH  099%=      5-min Rain = 0
KNH1 091116Z 26005KT 03/03 A3026 RMK A01 T00300028  RH  099%=      5-min Rain = 0
KNH1 091117Z 26005KT 03/03 A3026 RMK A01 T00290028  RH  099%=      5-min Rain = 0
KNH1 091118Z 25005KT 03/03 A3026 RMK A01 T00300028  RH  099%=      5-min Rain = 0
KNH1 091119Z 25005KT 03/03 A3026 RMK A01 T00290028  RH  099%=      5-min Rain = 0
KNH1 091120Z 25005KT 03/03 A3026 RMK A01 T00300028  RH  099%=      5-min Rain = 0
KNH1 091121Z 25006KT 03/03 A3026 RMK A01 T00290028  RH  099%=      5-min Rain = 0
KNH1 091122Z 25006KT 03/03 A3026 RMK A01 T00300028  RH  099%=      5-min Rain = 0
KNH1 091123Z 26006KT 03/03 A3026 RMK A01 T00300029  RH  099%=      5-min Rain = 0
KNH1 091124Z 26006KT 03/03 A3026 RMK A01 T00300029  RH  099%=      5-min Rain = 0
KNH1 091125Z 26006KT 03/03 A3026 RMK A01 T00300029  RH  099%=      5-min Rain = 0
KNH1 091126Z 26006KT 03/03 A3026 RMK A01 T00300029  RH  099%=      5-min Rain = 0
KNH1 091127Z 26006KT 03/03 A3026 RMK A01 T00300029  RH  099%=      5-min Rain = 0
KNH1 091128Z 26006KT 03/03 A3026 RMK A01 T00300029  RH  099%=      5-min Rain = 0
KNH1 091129Z 26006KT 03/03 A3026 RMK A01 T00300029  RH  099%=      5-min Rain = 0
KNH1 091130Z 26006KT 03/03 A3026 RMK A01 T00300029  RH  099%=      5-min Rain = 0
KNH1 091131Z 26006KT 03/03 A3026 RMK A01 T00300028  RH  099%=      5-min Rain = 0
KNH1 091132Z 26006KT 03/03 A3026 RMK A01 T00290027  RH  099%=      5-min Rain = 0
KNH1 091133Z 26005KT 03/03 A3026 RMK A01 T00290027  RH  099%=      5-min Rain = 0
KNH1 091134Z 26005KT 03/03 A3026 RMK A01 T00280027  RH  099%=      5-min Rain = 0
KNH1 091135Z 26005KT 03/03 A3026 RMK A01 T00280027  RH  099%=      5-min Rain = 0
KNH1 091136Z 27005KT 03/03 A3026 RMK A01 T00280027  RH  099%=      5-min Rain = 0
KNH1 091137Z 26005KT 03/03 A3026 RMK A01 T00270026  RH  099%=      5-min Rain = 0
KNH1 091138Z 27005KT 03/03 A3026 RMK A01 T00270025  RH  099%=      5-min Rain = 0
KNH1 091139Z 27005KT 03/03 A3026 RMK A01 T00270025  RH  099%=      5-min Rain = 0
KNH1 091140Z 27005KT 03/03 A3026 RMK A01 T00270025  RH  099%=      5-min Rain = 0
KNH1 091141Z 27005KT 03/03 A3026 RMK A01 T00270025  RH  099%=      5-min Rain = 0
KNH1 091142Z 28005KT 03/03 A3026 RMK A01 T00270025  RH  099%=      5-min Rain = 0
KNH1 091143Z 28005KT 03/03 A3026 RMK A01 T00270026  RH  099%=      5-min Rain = 0
KNH1 091144Z 28005KT 03/03 A3026 RMK A01 T00280027  RH  099%=      5-min Rain = 0
KNH1 091145Z 28005KT 03/03 A3026 RMK A01 T00280027  RH  099%=      5-min Rain = 0
KNH1 091146Z 27005KT 03/03 A3026 RMK A01 T00280027  RH  099%=      5-min Rain = 0
KNH1 091147Z 27005KT 03/03 A3026 RMK A01 T00280027  RH  100%=      5-min Rain = 0
KNH1 091148Z 27005KT 03/03 A3026 RMK A01 T00280026  RH  099%=      5-min Rain = 0
KNH1 091149Z 26006KT 03/03 A3026 RMK A01 T00270026  RH  099%=      5-min Rain = 0
KNH1 091150Z 27005KT 03/03 A3026 RMK A01 T00270025  RH  099%=      5-min Rain = 0
KNH1 091151Z 27005KT 03/03 A3026 RMK A01 T00270026  RH  099%=      5-min Rain = 0
KNH1 091152Z 27005KT 03/03 A3026 RMK A01 T00270026  RH  099%=      5-min Rain = 0
KNH1 091153Z 27005KT 03/03 A3026 RMK A01 T00270025  RH  099%=      5-min Rain = 0
KNH1 091154Z 27005KT 03/03 A3026 RMK A01 T00270025  RH  099%=      5-min Rain = 0
KNH1 091155Z 27005KT 03/03 A3026 RMK A01 T00270025  RH  099%=      5-min Rain = 0
KNH1 091156Z 27005KT 03/03 A3026 RMK A01 T00260025  RH  099%=      5-min Rain = 0
KNH1 091157Z 27006KT 03/03 A3026 RMK A01 T00260025  RH  099%=      5-min Rain = 0
KNH1 091158Z 27006KT 03/03 A3026 RMK A01 T00260025  RH  099%=      5-min Rain = 0
KNH1 091159Z 28005KT 03/03 A3026 RMK A01 T00260025  RH  099%=      5-min Rain = 0
KNH1 091200Z 28005KT 03/03 A3026 RMK A01 T00260025  RH  099%=      5-min Rain = 0
KNH1 091201Z 27005KT 03/03 A3026 RMK A01 T00260025  RH  099%=      5-min Rain = 0
KNH1 091202Z 27005KT 03/03 A3026 RMK A01 T00260025  RH  099%=      5-min Rain = 0
KNH1 091203Z 27005KT 03/03 A3026 RMK A01 T00260025  RH  099%=      5-min Rain = 0
KNH1 091204Z 27005KT 03/03 A3026 RMK A01 T00260025  RH  099%=      5-min Rain = 0
KNH1 091205Z 27005KT 03/03 A3026 RMK A01 T00260025  RH  099%=      5-min Rain = 0
KNH1 091206Z 27006KT 03/03 A3026 RMK A01 T00260025  RH  099%=      5-min Rain = 0
KNH1 091207Z 27005KT 03/02 A3026 RMK A01 T00260024  RH  099%=      5-min Rain = 0
KNH1 091208Z 27006KT 03/02 A3026 RMK A01 T00250024  RH  099%=      5-min Rain = 0
KNH1 091209Z 27006KT 03/02 A3026 RMK A01 T00250024  RH  099%=      5-min Rain = 0
KNH1 091210Z 27006KT 03/02 A3026 RMK A01 T00250024  RH  099%=      5-min Rain = 0
KNH1 091211Z 27006KT 03/02 A3026 RMK A01 T00250024  RH  099%=      5-min Rain = 0
KNH1 091212Z 27006KT 03/02 A3026 RMK A01 T00250024  RH  099%=      5-min Rain = 0
KNH1 091213Z 27006KT 03/02 A3026 RMK A01 T00250024  RH  099%=      5-min Rain = 0
KNH1 091214Z 27005KT 03/02 A3026 RMK A01 T00250023  RH  099%=      5-min Rain = 0
KNH1 091215Z 26006KT 02/02 A3026 RMK A01 T00240023  RH  099%=      5-min Rain = 0
KNH1 091216Z 26006KT 02/02 A3026 RMK A01 T00240023  RH  100%=      5-min Rain = 0
KNH1 091217Z 26006KT 02/02 A3026 RMK A01 T00240023  RH  100%=      5-min Rain = 0
KNH1 091218Z 26006KT 02/02 A3026 RMK A01 T00240023  RH  100%=      5-min Rain = 0
KNH1 091219Z 26006KT 02/02 A3026 RMK A01 T00240023  RH  100%=      5-min Rain = 0
KNH1 091220Z 26005KT 02/02 A3026 RMK A01 T00240023  RH  099%=      5-min Rain = 0
KNH1 091221Z 26005KT 02/02 A3027 RMK A01 T00240022  RH  099%=      5-min Rain = 0
KNH1 091222Z 26005KT 02/02 A3027 RMK A01 T00230022  RH  099%=      5-min Rain = 0
KNH1 091223Z 26005KT 02/02 A3027 RMK A01 T00230021  RH  099%=      5-min Rain = 0
KNH1 091224Z 26005KT 02/02 A3027 RMK A01 T00230021  RH  099%=      5-min Rain = 0
KNH1 091225Z 25006KT 02/02 A3027 RMK A01 T00220021  RH  099%=      5-min Rain = 0
KNH1 091226Z 25005KT 02/02 A3027 RMK A01 T00220021  RH  099%=      5-min Rain = 0
KNH1 091227Z 25005KT 02/02 A3027 RMK A01 T00220021  RH  099%=      5-min Rain = 0
KNH1 091228Z 25005KT 02/02 A3027 RMK A01 T00210020  RH  099%=      5-min Rain = 0
KNH1 091229Z 26005KT 02/02 A3027 RMK A01 T00210020  RH  099%=      5-min Rain = 0
KNH1 091230Z 26005KT 02/02 A3027 RMK A01 T00210020  RH  099%=      5-min Rain = 0
KNH1 091231Z 26006KT 02/02 A3027 RMK A01 T00210019  RH  099%=      5-min Rain = 0
KNH1 091232Z 25006KT 02/02 A3027 RMK A01 T00200019  RH  099%=      5-min Rain = 0
KNH1 091233Z 25006KT 02/02 A3027 RMK A01 T00200019  RH  099%=      5-min Rain = 0
KNH1 091234Z 25007KT 02/02 A3027 RMK A01 T00210019  RH  099%=      5-min Rain = 0
KNH1 091235Z 25007KT 02/02 A3027 RMK A01 T00210020  RH  099%=      5-min Rain = 0
KNH1 091236Z 25007KT 02/02 A3027 RMK A01 T00210020  RH  099%=      5-min Rain = 0
KNH1 091237Z 25006KT 02/02 A3027 RMK A01 T00210020  RH  099%=      5-min Rain = 0
KNH1 091238Z 25006KT 02/02 A3027 RMK A01 T00210020  RH  099%=      5-min Rain = 0
KNH1 091239Z 25006KT 02/02 A3027 RMK A01 T00210020  RH  099%=      5-min Rain = 0
KNH1 091240Z 25006KT 02/02 A3027 RMK A01 T00210020  RH  099%=      5-min Rain = 0
KNH1 091241Z 25006KT 02/02 A3027 RMK A01 T00210020  RH  099%=      5-min Rain = 0
KNH1 091242Z 25005KT 02/02 A3027 RMK A01 T00210020  RH  099%=      5-min Rain = 0
KNH1 091243Z 26006KT 02/02 A3027 RMK A01 T00210020  RH  099%=      5-min Rain = 0
KNH1 091244Z 26006KT 02/02 A3027 RMK A01 T00210020  RH  099%=      5-min Rain = 0
KNH1 091245Z 26006KT 02/02 A3027 RMK A01 T00210020  RH  099%=      5-min Rain = 0
KNH1 091246Z 26006KT 02/02 A3027 RMK A01 T00210020  RH  099%=      5-min Rain = 0
KNH1 091247Z 26005KT 02/02 A3027 RMK A01 T00210020  RH  099%=      5-min Rain = 0
KNH1 091248Z 26005KT 02/02 A3027 RMK A01 T00210020  RH  099%=      5-min Rain = 0
KNH1 091249Z 26005KT 02/02 A3027 RMK A01 T00210020  RH  099%=      5-min Rain = 0
KNH1 091250Z 26005KT 02/02 A3027 RMK A01 T00210020  RH  099%=      5-min Rain = 0
KNH1 091251Z 26005KT 02/02 A3027 RMK A01 T00210020  RH  099%=      5-min Rain = 0
KNH1 091252Z 26005KT 02/02 A3027 RMK A01 T00210020  RH  099%=      5-min Rain = 0
KNH1 091253Z 26005KT 02/02 A3027 RMK A01 T00210020  RH  099%=      5-min Rain = 0
KNH1 091254Z 26006KT 02/02 A3027 RMK A01 T00210020  RH  099%=      5-min Rain = 0
KNH1 091255Z 26006KT 02/02 A3027 RMK A01 T00210020  RH  099%=      5-min Rain = 0
KNH1 091256Z 26006KT 02/02 A3027 RMK A01 T00210020  RH  099%=      5-min Rain = 0
KNH1 091257Z 26006KT 02/02 A3027 RMK A01 T00210020  RH  099%=      5-min Rain = 0
KNH1 091258Z 26006KT 02/02 A3027 RMK A01 T00210020  RH  099%=      5-min Rain = 0
KNH1 091259Z 26006KT 02/02 A3027 RMK A01 T00210020  RH  099%=      5-min Rain = 0
KNH1 091300Z 26006KT 02/02 A3027 RMK A01 T00210020  RH  099%=      5-min Rain = 0
KNH1 091301Z 26005KT 02/02 A3027 RMK A01 T00220021  RH  099%=      5-min Rain = 0
KNH1 091302Z 26005KT 02/02 A3027 RMK A01 T00220020  RH  099%=      5-min Rain = 0
KNH1 091303Z 26005KT 02/02 A3027 RMK A01 T00220021  RH  099%=      5-min Rain = 0
KNH1 091304Z 26005KT 02/02 A3027 RMK A01 T00220021  RH  099%=      5-min Rain = 0
KNH1 091305Z 26005KT 02/02 A3027 RMK A01 T00220021  RH  099%=      5-min Rain = 0
KNH1 091306Z 26005KT 02/02 A3027 RMK A01 T00220020  RH  099%=      5-min Rain = 0
KNH1 091307Z 26005KT 02/02 A3027 RMK A01 T00210020  RH  099%=      5-min Rain = 0
KNH1 091308Z 26005KT 02/02 A3027 RMK A01 T00210020  RH  099%=      5-min Rain = 0
KNH1 091309Z 26006KT 02/02 A3027 RMK A01 T00220020  RH  099%=      5-min Rain = 0
KNH1 091310Z 26006KT 02/02 A3027 RMK A01 T00220020  RH  099%=      5-min Rain = 0
KNH1 091311Z 26006KT 02/02 A3027 RMK A01 T00220020  RH  099%=      5-min Rain = 0
KNH1 091312Z 26005KT 02/02 A3027 RMK A01 T00220021  RH  099%=      5-min Rain = 0
KNH1 091313Z 26006KT 02/02 A3027 RMK A01 T00220020  RH  099%=      5-min Rain = 0
KNH1 091314Z 26006KT 02/02 A3027 RMK A01 T00210020  RH  099%=      5-min Rain = 0
KNH1 091315Z 25005KT 02/02 A3027 RMK A01 T00210020  RH  099%=      5-min Rain = 0
KNH1 091316Z 25006KT 02/02 A3027 RMK A01 T00210020  RH  099%=      5-min Rain = 0
KNH1 091317Z 25005KT 02/02 A3027 RMK A01 T00210019  RH  099%=      5-min Rain = 0
KNH1 091318Z 25005KT 02/02 A3027 RMK A01 T00210019  RH  099%=      5-min Rain = 0
KNH1 091319Z 25005KT 02/02 A3027 RMK A01 T00210020  RH  099%=      5-min Rain = 0
KNH1 091320Z 25005KT 02/02 A3027 RMK A01 T00210019  RH  099%=      5-min Rain = 0
KNH1 091321Z 25005KT 02/02 A3027 RMK A01 T00210019  RH  099%=      5-min Rain = 0
KNH1 091322Z 24005KT 02/02 A3027 RMK A01 T00210019  RH  099%=      5-min Rain = 0
KNH1 091323Z 24005KT 02/02 A3027 RMK A01 T00210020  RH  099%=      5-min Rain = 0
KNH1 091324Z 25005KT 02/02 A3027 RMK A01 T00210020  RH  099%=      5-min Rain = 0
KNH1 091325Z 25005KT 02/02 A3027 RMK A01 T00210020  RH  099%=      5-min Rain = 0
KNH1 091326Z 25005KT 02/02 A3027 RMK A01 T00210020  RH  099%=      5-min Rain = 0
KNH1 091327Z 25005KT 02/02 A3027 RMK A01 T00210020  RH  099%=      5-min Rain = 0
KNH1 091328Z 25005KT 02/02 A3027 RMK A01 T00210020  RH  099%=      5-min Rain = 0
KNH1 091329Z 25005KT 02/02 A3027 RMK A01 T00220020  RH  099%=      5-min Rain = 0
KNH1 091330Z 26005KT 02/02 A3027 RMK A01 T00220021  RH  099%=      5-min Rain = 0
KNH1 091331Z 26005KT 02/02 A3027 RMK A01 T00220020  RH  099%=      5-min Rain = 0
KNH1 091332Z 26005KT 02/02 A3027 RMK A01 T00220021  RH  099%=      5-min Rain = 0
KNH1 091333Z 26006KT 02/02 A3027 RMK A01 T00220021  RH  099%=      5-min Rain = 0
KNH1 091334Z 26005KT 02/02 A3027 RMK A01 T00220021  RH  099%=      5-min Rain = 0
KNH1 091335Z 26005KT 02/02 A3027 RMK A01 T00230022  RH  099%=      5-min Rain = 0
KNH1 091336Z 26005KT 02/02 A3027 RMK A01 T00220021  RH  099%=      5-min Rain = 0
KNH1 091337Z 26005KT 02/02 A3027 RMK A01 T00230021  RH  099%=      5-min Rain = 0
KNH1 091338Z 27004KT 02/02 A3027 RMK A01 T00230021  RH  099%=      5-min Rain = 0
KNH1 091339Z 28004KT 02/02 A3027 RMK A01 T00230022  RH  099%=      5-min Rain = 0
KNH1 091340Z 28004KT 02/02 A3027 RMK A01 T00230022  RH  099%=      5-min Rain = 0
KNH1 091341Z 28004KT 02/02 A3027 RMK A01 T00240022  RH  099%=      5-min Rain = 0
KNH1 091342Z 28003KT 02/02 A3027 RMK A01 T00240022  RH  099%=      5-min Rain = 0
KNH1 091343Z 28004KT 02/02 A3027 RMK A01 T00240023  RH  099%=      5-min Rain = 0
KNH1 091344Z 28004KT 02/02 A3027 RMK A01 T00240023  RH  100%=      5-min Rain = 0
KNH1 091345Z 27004KT 02/02 A3027 RMK A01 T00240023  RH  100%=      5-min Rain = 0
KNH1 091346Z 28004KT 03/02 A3027 RMK A01 T00250024  RH  100%=      5-min Rain = 0
KNH1 091347Z 28005KT 03/03 A3027 RMK A01 T00250025  RH  100%=      5-min Rain = 0
KNH1 091348Z 28004KT 03/03 A3027 RMK A01 T00260025  RH  099%=      5-min Rain = 0
KNH1 091349Z 29004KT 03/03 A3027 RMK A01 T00260025  RH  099%=      5-min Rain = 0
KNH1 091350Z 29004KT 03/03 A3027 RMK A01 T00270026  RH  099%=      5-min Rain = 0
KNH1 091351Z 28003KT 03/03 A3027 RMK A01 T00270026  RH  100%=      5-min Rain = 0
KNH1 091352Z 28003KT 03/03 A3027 RMK A01 T00270027  RH  100%=      5-min Rain = 0
KNH1 091353Z 28003KT 03/03 A3027 RMK A01 T00280027  RH  099%=      5-min Rain = 0
KNH1 091354Z 28004KT 03/03 A3027 RMK A01 T00280027  RH  099%=      5-min Rain = 0
KNH1 091355Z 28003KT 03/03 A3027 RMK A01 T00290029  RH  100%=      5-min Rain = 0
KNH1 091356Z 28004KT 03/03 A3027 RMK A01 T00300029  RH  100%=      5-min Rain = 0
KNH1 091357Z 28003KT 03/03 A3027 RMK A01 T00300030  RH  100%=      5-min Rain = 0
KNH1 091358Z 28003KT 03/03 A3027 RMK A01 T00310030  RH  100%=      5-min Rain = 0
KNH1 091359Z 29004KT 03/03 A3027 RMK A01 T00310031  RH  100%=      5-min Rain = 0
KNH1 091400Z 29003KT 03/03 A3027 RMK A01 T00320031  RH  100%=      5-min Rain = 0
KNH1 091401Z 29003KT 03/03 A3027 RMK A01 T00330032  RH  100%=      5-min Rain = 0
KNH1 091402Z 29003KT 03/03 A3027 RMK A01 T00330032  RH  100%=      5-min Rain = 0
KNH1 091403Z 29003KT 03/03 A3027 RMK A01 T00340033  RH  100%=      5-min Rain = 0
KNH1 091404Z 29004KT 03/03 A3027 RMK A01 T00340034  RH  100%=      5-min Rain = 0
KNH1 091405Z 29004KT 04/03 A3027 RMK A01 T00350034  RH  100%=      5-min Rain = 0
KNH1 091406Z 28004KT 04/03 A3027 RMK A01 T00350034  RH  100%=      5-min Rain = 0
KNH1 091407Z 29004KT 04/04 A3027 RMK A01 T00360035  RH  099%=      5-min Rain = 0
KNH1 091408Z 29004KT 04/04 A3027 RMK A01 T00360035  RH  099%=      5-min Rain = 0
KNH1 091409Z 29004KT 04/04 A3027 RMK A01 T00370036  RH  099%=      5-min Rain = 0
KNH1 091410Z 29004KT 04/04 A3027 RMK A01 T00380037  RH  099%=      5-min Rain = 0
KNH1 091411Z 29004KT 04/04 A3027 RMK A01 T00380037  RH  099%=      5-min Rain = 0
KNH1 091412Z 30004KT 04/04 A3027 RMK A01 T00390038  RH  099%=      5-min Rain = 0
KNH1 091413Z 30004KT 04/04 A3027 RMK A01 T00400039  RH  099%=      5-min Rain = 0
KNH1 091414Z 30004KT 04/04 A3027 RMK A01 T00410040  RH  099%=      5-min Rain = 0
KNH1 091415Z 29004KT 04/04 A3027 RMK A01 T00420041  RH  099%=      5-min Rain = 0
KNH1 091416Z 29004KT 04/04 A3027 RMK A01 T00420041  RH  099%=      5-min Rain = 0
KNH1 091417Z 29004KT 04/04 A3027 RMK A01 T00430042  RH  099%=      5-min Rain = 0
KNH1 091418Z 28004KT 04/04 A3028 RMK A01 T00440043  RH  099%=      5-min Rain = 0
KNH1 091419Z 29004KT 05/04 A3028 RMK A01 T00450044  RH  099%=      5-min Rain = 0
KNH1 091420Z 30004KT 05/04 A3028 RMK A01 T00460044  RH  099%=      5-min Rain = 0
KNH1 091421Z 30003KT 05/05 A3028 RMK A01 T00460045  RH  099%=      5-min Rain = 0
KNH1 091422Z 30003KT 05/05 A3028 RMK A01 T00470046  RH  099%=      5-min Rain = 0
KNH1 091423Z 31003KT 05/05 A3028 RMK A01 T00480046  RH  099%=      5-min Rain = 0
KNH1 091424Z 31003KT 05/05 A3028 RMK A01 T00480047  RH  099%=      5-min Rain = 0
KNH1 091425Z 30004KT 05/05 A3028 RMK A01 T00490047  RH  099%=      5-min Rain = 0
KNH1 091426Z 30003KT 05/05 A3028 RMK A01 T00500048  RH  099%=      5-min Rain = 0
KNH1 091427Z 31004KT 05/05 A3028 RMK A01 T00510049  RH  099%=      5-min Rain = 0
KNH1 091428Z 29004KT 05/05 A3028 RMK A01 T00510049  RH  099%=      5-min Rain = 0
KNH1 091429Z 30005KT 05/05 A3028 RMK A01 T00530050  RH  099%=      5-min Rain = 0
KNH1 091430Z 30006KT 05/05 A3028 RMK A01 T00530051  RH  098%=      5-min Rain = 0
KNH1 091431Z 30004KT 05/05 A3028 RMK A01 T00530050  RH  098%=      5-min Rain = 0
KNH1 091432Z 30004KT 05/05 A3028 RMK A01 T00540052  RH  098%=      5-min Rain = 0
KNH1 091433Z 30004KT 06/05 A3028 RMK A01 T00550053  RH  098%=      5-min Rain = 0
KNH1 091434Z 29004KT 06/05 A3028 RMK A01 T00560053  RH  098%=      5-min Rain = 0
KNH1 091435Z 29004KT 06/05 A3028 RMK A01 T00570054  RH  098%=      5-min Rain = 0
KNH1 091436Z 29006KT 06/05 A3028 RMK A01 T00570054  RH  098%=      5-min Rain = 0
KNH1 091437Z 30006KT 06/05 A3028 RMK A01 T00570054  RH  097%=      5-min Rain = 0
KNH1 091438Z 30005KT 06/05 A3028 RMK A01 T00580054  RH  097%=      5-min Rain = 0
KNH1 091439Z 30004KT 06/06 A3028 RMK A01 T00590055  RH  097%=      5-min Rain = 0
KNH1 091440Z 30004KT 06/06 A3028 RMK A01 T00600056  RH  097%=      5-min Rain = 0
KNH1 091441Z 31004KT 06/06 A3028 RMK A01 T00610056  RH  097%=      5-min Rain = 0
KNH1 091442Z 30005KT 06/06 A3028 RMK A01 T00610056  RH  097%=      5-min Rain = 0
KNH1 091443Z 31006KT 06/06 A3028 RMK A01 T00620056  RH  096%=      5-min Rain = 0
KNH1 091444Z 30006KT 06/06 A3028 RMK A01 T00620056  RH  096%=      5-min Rain = 0
KNH1 091445Z 30004KT 06/06 A3028 RMK A01 T00620056  RH  096%=      5-min Rain = 0
KNH1 091446Z 29003KT 06/06 A3028 RMK A01 T00630057  RH  096%=      5-min Rain = 0
KNH1 091447Z 29005KT 07/06 A3028 RMK A01 T00650059  RH  096%=      5-min Rain = 0
KNH1 091448Z 29006KT 06/06 A3028 RMK A01 T00640057  RH  095%=      5-min Rain = 0
KNH1 091449Z 29005KT 07/06 A3028 RMK A01 T00650057  RH  095%=      5-min Rain = 0
KNH1 091450Z 30005KT 07/06 A3028 RMK A01 T00650058  RH  095%=      5-min Rain = 0
KNH1 091451Z 30004KT 07/06 A3028 RMK A01 T00660058  RH  095%=      5-min Rain = 0
KNH1 091452Z 30004KT 07/06 A3028 RMK A01 T00670059  RH  095%=      5-min Rain = 0
KNH1 091453Z 30004KT 07/06 A3028 RMK A01 T00680060  RH  095%=      5-min Rain = 0
KNH1 091454Z 31004KT 07/06 A3028 RMK A01 T00680060  RH  095%=      5-min Rain = 0
KNH1 091455Z 30004KT 07/06 A3028 RMK A01 T00680059  RH  094%=      5-min Rain = 0
KNH1 091456Z 31003KT 07/06 A3028 RMK A01 T00690059  RH  094%=      5-min Rain = 0
KNH1 091457Z 31005KT 07/06 A3028 RMK A01 T00690059  RH  093%=      5-min Rain = 0
KNH1 091458Z 30005KT 07/06 A3028 RMK A01 T00690058  RH  093%=      5-min Rain = 0
KNH1 091459Z 31006KT 07/06 A3028 RMK A01 T00690058  RH  093%=      5-min Rain = 0
KNH1 091500Z 30005KT 07/06 A3028 RMK A01 T00690058  RH  093%=      5-min Rain = 0
KNH1 091501Z 30005KT 07/06 A3028 RMK A01 T00700059  RH  093%=      5-min Rain = 0
KNH1 091502Z 29005KT 07/06 A3028 RMK A01 T00710060  RH  093%=      5-min Rain = 0
KNH1 091503Z 29005KT 07/06 A3028 RMK A01 T00720061  RH  093%=      5-min Rain = 0
KNH1 091504Z 30006KT 07/06 A3028 RMK A01 T00730062  RH  093%=      5-min Rain = 0
KNH1 091505Z 30005KT 07/06 A3028 RMK A01 T00740062  RH  092%=      5-min Rain = 0
KNH1 091506Z 29007KT 08/06 A3028 RMK A01 T00750063  RH  092%=      5-min Rain = 0
KNH1 091507Z 30005KT 08/06 A3028 RMK A01 T00750063  RH  092%=      5-min Rain = 0
KNH1 091508Z 30005KT 08/06 A3028 RMK A01 T00750062  RH  091%=      5-min Rain = 0
KNH1 091509Z 29005KT 08/06 A3028 RMK A01 T00760063  RH  091%=      5-min Rain = 0
KNH1 091510Z 31005KT 08/06 A3028 RMK A01 T00770062  RH  091%=      5-min Rain = 0
KNH1 091511Z 32003KT 08/06 A3028 RMK A01 T00770063  RH  091%=      5-min Rain = 0
KNH1 091512Z 32004KT 08/06 A3028 RMK A01 T00770063  RH  091%=      5-min Rain = 0
KNH1 091513Z 32004KT 08/06 A3028 RMK A01 T00770061  RH  090%=      5-min Rain = 0
KNH1 091514Z 31003KT 08/06 A3029 RMK A01 T00770061  RH  089%=      5-min Rain = 0
KNH1 091515Z 32004KT 08/06 A3029 RMK A01 T00780062  RH  090%=      5-min Rain = 0
KNH1 091516Z 32004KT 08/06 A3029 RMK A01 T00780062  RH  090%=      5-min Rain = 0
KNH1 091517Z 32005KT 08/06 A3029 RMK A01 T00790062  RH  089%=      5-min Rain = 0
KNH1 091518Z 32004KT 08/06 A3029 RMK A01 T00780061  RH  089%=      5-min Rain = 0
KNH1 091519Z 31005KT 08/06 A3029 RMK A01 T00790062  RH  089%=      5-min Rain = 0
KNH1 091520Z 31004KT 08/06 A3029 RMK A01 T00790062  RH  089%=      5-min Rain = 0
KNH1 091521Z 33004KT 08/06 A3029 RMK A01 T00790062  RH  089%=      5-min Rain = 0
KNH1 091522Z 32004KT 08/06 A3029 RMK A01 T00800063  RH  089%=      5-min Rain = 0
KNH1 091523Z 31005KT 08/06 A3029 RMK A01 T00810063  RH  089%=      5-min Rain = 0
KNH1 091524Z 31003KT 08/06 A3029 RMK A01 T00800062  RH  088%=      5-min Rain = 0
KNH1 091525Z 32003KT 08/06 A3029 RMK A01 T00800064  RH  089%=      5-min Rain = 0
KNH1 091526Z 32003KT 08/06 A3029 RMK A01 T00810064  RH  089%=      5-min Rain = 0
KNH1 091527Z 31004KT 08/07 A3029 RMK A01 T00830066  RH  089%=      5-min Rain = 0
KNH1 091528Z 32002KT 08/07 A3029 RMK A01 T00830066  RH  089%=      5-min Rain = 0
KNH1 091529Z 31005KT 08/07 A3029 RMK A01 T00840068  RH  089%=      5-min Rain = 0
KNH1 091530Z 30004KT 09/07 A3029 RMK A01 T00850068  RH  089%=      5-min Rain = 0
KNH1 091531Z 31004KT 09/07 A3029 RMK A01 T00860072  RH  090%=      5-min Rain = 0
KNH1 091532Z 30004KT 09/07 A3029 RMK A01 T00880072  RH  090%=      5-min Rain = 0
KNH1 091533Z 31003KT 09/07 A3029 RMK A01 T00880072  RH  090%=      5-min Rain = 0
KNH1 091534Z 30004KT 09/07 A3029 RMK A01 T00890072  RH  089%=      5-min Rain = 0
KNH1 091535Z 29005KT 09/07 A3029 RMK A01 T00880070  RH  088%=      5-min Rain = 0
KNH1 091536Z 31005KT 09/07 A3029 RMK A01 T00880070  RH  089%=      5-min Rain = 0
KNH1 091537Z 30005KT 09/07 A3029 RMK A01 T00890070  RH  088%=      5-min Rain = 0
KNH1 091538Z 30003KT 09/07 A3029 RMK A01 T00890071  RH  088%=      5-min Rain = 0
KNH1 091539Z 31005KT 09/08 A3029 RMK A01 T00910075  RH  090%=      5-min Rain = 0
KNH1 091540Z 31004KT 09/07 A3029 RMK A01 T00920074  RH  089%=      5-min Rain = 0
KNH1 091541Z 30004KT 09/07 A3029 RMK A01 T00930074  RH  088%=      5-min Rain = 0
KNH1 091542Z 30004KT 09/08 A3029 RMK A01 T00930075  RH  088%=      5-min Rain = 0
KNH1 091543Z 28004KT 09/08 A3029 RMK A01 T00940075  RH  088%=      5-min Rain = 0
KNH1 091544Z 28003KT 10/08 A3029 RMK A01 T00950077  RH  088%=      5-min Rain = 0
KNH1 091545Z 28004KT 10/08 A3029 RMK A01 T00960077  RH  088%=      5-min Rain = 0
KNH1 091546Z 29005KT 10/08 A3029 RMK A01 T00960076  RH  088%=      5-min Rain = 0
KNH1 091547Z 30004KT 10/08 A3029 RMK A01 T00950076  RH  088%=      5-min Rain = 0
KNH1 091548Z 30004KT 10/08 A3029 RMK A01 T00960077  RH  088%=      5-min Rain = 0
KNH1 091549Z 31005KT 10/08 A3029 RMK A01 T00960077  RH  087%=      5-min Rain = 0
KNH1 091550Z 31004KT 10/08 A3029 RMK A01 T00970076  RH  087%=      5-min Rain = 0
KNH1 091551Z 32004KT 10/08 A3029 RMK A01 T00970076  RH  087%=      5-min Rain = 0
KNH1 091552Z 31003KT 10/08 A3029 RMK A01 T00970075  RH  086%=      5-min Rain = 0
KNH1 091553Z 32003KT 10/08 A3029 RMK A01 T00970076  RH  086%=      5-min Rain = 0
KNH1 091554Z 31003KT 10/08 A3029 RMK A01 T00990078  RH  087%=      5-min Rain = 0
KNH1 091555Z 31003KT 10/08 A3029 RMK A01 T01000079  RH  087%=      5-min Rain = 0
KNH1 091556Z 32004KT 10/08 A3029 RMK A01 T01000078  RH  086%=      5-min Rain = 0
KNH1 091557Z 32004KT 10/08 A3029 RMK A01 T01010078  RH  086%=      5-min Rain = 0
KNH1 091558Z 31004KT 10/08 A3029 RMK A01 T01010079  RH  086%=      5-min Rain = 0
KNH1 091559Z 31004KT 10/08 A3029 RMK A01 T01010079  RH  086%=      5-min Rain = 0
KNH1 091600Z 31003KT 10/08 A3029 RMK A01 T01010079  RH  086%=      5-min Rain = 0
KNH1 091601Z 31004KT 10/08 A3029 RMK A01 T01020080  RH  086%=      5-min Rain = 0
KNH1 091602Z 30003KT 10/08 A3029 RMK A01 T01030081  RH  086%=      5-min Rain = 0
KNH1 091603Z 31002KT 10/08 A3029 RMK A01 T01040083  RH  087%=      5-min Rain = 0
KNH1 091604Z 30003KT 11/08 A3029 RMK A01 T01050084  RH  087%=      5-min Rain = 0
KNH1 091605Z 30003KT 11/08 A3029 RMK A01 T01060084  RH  086%=      5-min Rain = 0
KNH1 091606Z 31003KT 11/08 A3029 RMK A01 T01060082  RH  085%=      5-min Rain = 0
KNH1 091607Z 29003KT 11/08 A3029 RMK A01 T01060082  RH  085%=      5-min Rain = 0
KNH1 091608Z 32002KT 11/08 A3029 RMK A01 T01060084  RH  086%=      5-min Rain = 0
KNH1 091609Z 34002KT 11/08 A3029 RMK A01 T01070084  RH  086%=      5-min Rain = 0
KNH1 091610Z 30003KT 11/08 A3029 RMK A01 T01080083  RH  085%=      5-min Rain = 0
KNH1 091611Z 27003KT 11/08 A3029 RMK A01 T01080083  RH  085%=      5-min Rain = 0
KNH1 091612Z 28004KT 11/09 A3029 RMK A01 T01090086  RH  086%=      5-min Rain = 0
KNH1 091613Z 29004KT 11/09 A3029 RMK A01 T01100085  RH  084%=      5-min Rain = 0
KNH1 091614Z 29004KT 11/09 A3029 RMK A01 T01100086  RH  085%=      5-min Rain = 0
KNH1 091615Z 28003KT 11/09 A3029 RMK A01 T01110087  RH  085%=      5-min Rain = 0
KNH1 091616Z 27004KT 11/09 A3029 RMK A01 T01120088  RH  085%=      5-min Rain = 0
KNH1 091617Z 28004KT 11/09 A3029 RMK A01 T01140090  RH  086%=      5-min Rain = 0
KNH1 091618Z 28005KT 12/09 A3029 RMK A01 T01150088  RH  084%=      5-min Rain = 0
KNH1 091619Z 28004KT 12/08 A3029 RMK A01 T01150084  RH  081%=      5-min Rain = 0
KNH1 091620Z 29004KT 11/08 A3029 RMK A01 T01130084  RH  082%=      5-min Rain = 0
KNH1 091621Z 29003KT 11/09 A3029 RMK A01 T01140088  RH  084%=      5-min Rain = 0
KNH1 091622Z 26005KT 12/09 A3029 RMK A01 T01150088  RH  084%=      5-min Rain = 0
KNH1 091623Z 24005KT 12/09 A3029 RMK A01 T01160087  RH  083%=      5-min Rain = 0
KNH1 091624Z 26005KT 12/09 A3029 RMK A01 T01160087  RH  083%=      5-min Rain = 0
KNH1 091625Z 27004KT 12/09 A3029 RMK A01 T01170087  RH  082%=      5-min Rain = 0
KNH1 091626Z 27005KT 12/09 A3029 RMK A01 T01170090  RH  083%=      5-min Rain = 0
KNH1 091627Z 26005KT 12/09 A3029 RMK A01 T01180090  RH  083%=      5-min Rain = 0
KNH1 091628Z 26005KT 12/09 A3029 RMK A01 T01190090  RH  082%=      5-min Rain = 0
KNH1 091629Z 24006KT 12/09 A3029 RMK A01 T01210093  RH  083%=      5-min Rain = 0
KNH1 091630Z 25005KT 12/09 A3029 RMK A01 T01210090  RH  081%=      5-min Rain = 0
KNH1 091631Z 27005KT 12/09 A3029 RMK A01 T01210091  RH  082%=      5-min Rain = 0
KNH1 091632Z 27005KT 12/09 A3029 RMK A01 T01210092  RH  082%=      5-min Rain = 0
KNH1 091633Z 25006KT 12/09 A3029 RMK A01 T01220093  RH  082%=      5-min Rain = 0.01
KNH1 091634Z 25006KT 12/09 A3029 RMK A01 T01230092  RH  081%=      5-min Rain = 0
KNH1 091635Z 26006KT 12/10 A3029 RMK A01 T01240095  RH  082%=      5-min Rain = 0
KNH1 091636Z 26007KT 13/10 A3029 RMK A01 T01250095  RH  082%=      5-min Rain = 0
KNH1 091637Z 27006KT 13/09 A3028 RMK A01 T01260093  RH  080%=      5-min Rain = 0
KNH1 091638Z 28006KT 13/09 A3028 RMK A01 T01260093  RH  080%=      5-min Rain = 0
KNH1 091639Z 27006KT 13/10 A3028 RMK A01 T01270096  RH  082%=      5-min Rain = 0
KNH1 091640Z 28006KT 13/09 A3028 RMK A01 T01270094  RH  080%=      5-min Rain = 0
KNH1 091641Z 26006KT 13/09 A3028 RMK A01 T01270094  RH  080%=      5-min Rain = 0
KNH1 091642Z 26005KT 13/09 A3028 RMK A01 T01270092  RH  079%=      5-min Rain = 0
KNH1 091643Z 25005KT 13/09 A3028 RMK A01 T01260093  RH  080%=      5-min Rain = 0
KNH1 091644Z 26005KT 13/10 A3028 RMK A01 T01280096  RH  081%=      5-min Rain = 0
KNH1 091645Z 25006KT 13/10 A3028 RMK A01 T01290097  RH  081%=      5-min Rain = 0
KNH1 091646Z 26006KT 13/10 A3028 RMK A01 T01310099  RH  081%=      5-min Rain = 0
KNH1 091647Z 26005KT 13/09 A3028 RMK A01 T01310094  RH  078%=      5-min Rain = 0
KNH1 091648Z 25007KT 13/10 A3028 RMK A01 T01300095  RH  079%=      5-min Rain = 0
KNH1 091649Z 26006KT 13/09 A3028 RMK A01 T01310092  RH  078%=      5-min Rain = 0
KNH1 091650Z 26006KT 13/09 A3028 RMK A01 T01310094  RH  079%=      5-min Rain = 0
KNH1 091651Z 26007KT 13/10 A3028 RMK A01 T01310096  RH  079%=      5-min Rain = 0
KNH1 091652Z 26006KT 13/10 A3028 RMK A01 T01320095  RH  078%=      5-min Rain = 0
KNH1 091653Z 26007KT 13/09 A3028 RMK A01 T01330094  RH  077%=      5-min Rain = 0
KNH1 091654Z 26007KT 13/10 A3028 RMK A01 T01330096  RH  078%=      5-min Rain = 0
KNH1 091655Z 26006KT 13/10 A3028 RMK A01 T01340097  RH  078%=      5-min Rain = 0
KNH1 091656Z 26007KT 13/10 A3028 RMK A01 T01340095  RH  077%=      5-min Rain = 0
KNH1 091657Z 26007KT 14/10 A3028 RMK A01 T01350098  RH  078%=      5-min Rain = 0
KNH1 091658Z 27007KT 14/09 A3028 RMK A01 T01360094  RH  076%=      5-min Rain = 0
KNH1 091659Z 27007KT 14/10 A3028 RMK A01 T01360095  RH  076%=      5-min Rain = 0
KNH1 091700Z 26007KT 14/10 A3028 RMK A01 T01370095  RH  076%=      5-min Rain = 0
KNH1 091701Z 26006KT 14/09 A3028 RMK A01 T01360094  RH  075%=      5-min Rain = 0
KNH1 091702Z 26007KT 14/10 A3028 RMK A01 T01360096  RH  077%=      5-min Rain = 0
KNH1 091703Z 27006KT 14/10 A3028 RMK A01 T01360096  RH  077%=      5-min Rain = 0
KNH1 091704Z 27006KT 14/10 A3028 RMK A01 T01370096  RH  076%=      5-min Rain = 0
KNH1 091705Z 28006KT 14/10 A3028 RMK A01 T01370095  RH  076%=      5-min Rain = 0
KNH1 091706Z 27007KT 14/10 A3028 RMK A01 T01370096  RH  076%=      5-min Rain = 0
KNH1 091707Z 27007KT 14/10 A3028 RMK A01 T01390097  RH  076%=      5-min Rain = 0
KNH1 091708Z 28006KT 14/10 A3028 RMK A01 T01390096  RH  075%=      5-min Rain = 0
KNH1 091709Z 26007KT 14/10 A3028 RMK A01 T01400097  RH  075%=      5-min Rain = 0
KNH1 091710Z 27005KT 14/10 A3028 RMK A01 T01410100  RH  076%=      5-min Rain = 0
KNH1 091711Z 27007KT 14/10 A3028 RMK A01 T01430100  RH  075%=      5-min Rain = 0
KNH1 091712Z 25006KT 14/10 A3028 RMK A01 T01440098  RH  074%=      5-min Rain = 0
KNH1 091713Z 25006KT 15/10 A3028 RMK A01 T01450101  RH  075%=      5-min Rain = 0
KNH1 091714Z 26006KT 15/10 A3028 RMK A01 T01450100  RH  074%=      5-min Rain = 0
KNH1 091715Z 27005KT 15/10 A3028 RMK A01 T01450098  RH  073%=      5-min Rain = 0
KNH1 091716Z 27005KT 15/10 A3028 RMK A01 T01450096  RH  073%=      5-min Rain = 0
KNH1 091717Z 26007KT 15/10 A3028 RMK A01 T01450098  RH  074%=      5-min Rain = 0
KNH1 091718Z 27007KT 15/10 A3028 RMK A01 T01470100  RH  073%=      5-min Rain = 0
KNH1 091719Z 25007KT 15/10 A3027 RMK A01 T01470098  RH  072%=      5-min Rain = 0
KNH1 091720Z 25007KT 15/10 A3027 RMK A01 T01480102  RH  074%=      5-min Rain = 0
KNH1 091721Z 25008KT 15/10 A3027 RMK A01 T01490099  RH  072%=      5-min Rain = 0
KNH1 091722Z 25007KT 15/10 A3027 RMK A01 T01500099  RH  072%=      5-min Rain = 0
KNH1 091723Z 26006KT 15/10 A3027 RMK A01 T01510102  RH  073%=      5-min Rain = 0
KNH1 091724Z 25005KT 15/10 A3027 RMK A01 T01520103  RH  072%=      5-min Rain = 0
KNH1 091725Z 26007KT 15/10 A3027 RMK A01 T01530102  RH  071%=      5-min Rain = 0
KNH1 091726Z 25008KT 15/10 A3027 RMK A01 T01530096  RH  069%=      5-min Rain = 0
KNH1 091727Z 25008KT 15/10 A3027 RMK A01 T01530098  RH  070%=      5-min Rain = 0
KNH1 091728Z 25007KT 15/10 A3027 RMK A01 T01520098  RH  070%=      5-min Rain = 0
KNH1 091729Z 26006KT 15/10 A3027 RMK A01 T01520098  RH  070%=      5-min Rain = 0
KNH1 091730Z 26008KT 15/10 A3027 RMK A01 T01520101  RH  071%=      5-min Rain = 0
KNH1 091731Z 25007KT 15/10 A3027 RMK A01 T01530096  RH  069%=      5-min Rain = 0
KNH1 091732Z 27008KT 15/10 A3027 RMK A01 T01530101  RH  071%=      5-min Rain = 0
KNH1 091733Z 26008KT 16/10 A3027 RMK A01 T01550099  RH  069%=      5-min Rain = 0
KNH1 091734Z 27007KT 16/10 A3027 RMK A01 T01560102  RH  070%=      5-min Rain = 0
KNH1 091735Z 26008KT 16/10 A3027 RMK A01 T01570100  RH  069%=      5-min Rain = 0
KNH1 091736Z 27008KT 16/10 A3027 RMK A01 T01580098  RH  067%=      5-min Rain = 0
KNH1 091737Z 27006KT 16/10 A3027 RMK A01 T01590098  RH  067%=      5-min Rain = 0
KNH1 091738Z 27007KT 16/10 A3027 RMK A01 T01590097  RH  066%=      5-min Rain = 0
KNH1 091739Z 25006KT 16/11 A3027 RMK A01 T01600105  RH  070%=      5-min Rain = 0
KNH1 091740Z 26007KT 16/10 A3027 RMK A01 T01620104  RH  069%=      5-min Rain = 0
KNH1 091741Z 25008KT 16/10 A3027 RMK A01 T01620099  RH  066%=      5-min Rain = 0
KNH1 091742Z 25009KT 16/10 A3026 RMK A01 T01610102  RH  068%=      5-min Rain = 0
KNH1 091743Z 26008KT 16/10 A3026 RMK A01 T01610098  RH  066%=      5-min Rain = 0
KNH1 091744Z 25008KT 16/10 A3026 RMK A01 T01600099  RH  067%=      5-min Rain = 0
KNH1 091745Z 26007KT 16/10 A3026 RMK A01 T01590100  RH  068%=      5-min Rain = 0
KNH1 091746Z 26008KT 16/10 A3026 RMK A01 T01600099  RH  067%=      5-min Rain = 0
KNH1 091747Z 26008KT 16/10 A3026 RMK A01 T01610099  RH  067%=      5-min Rain = 0
KNH1 091748Z 26008KT 16/10 A3026 RMK A01 T01610099  RH  067%=      5-min Rain = 0
KNH1 091749Z 26008KT 16/10 A3026 RMK A01 T01610099  RH  066%=      5-min Rain = 0
KNH1 091750Z 26007KT 16/10 A3026 RMK A01 T01610096  RH  065%=      5-min Rain = 0
KNH1 091751Z 26007KT 16/10 A3026 RMK A01 T01610097  RH  065%=      5-min Rain = 0
KNH1 091752Z 27007KT 16/10 A3026 RMK A01 T01610097  RH  066%=      5-min Rain = 0
KNH1 091753Z 26006KT 16/10 A3026 RMK A01 T01600098  RH  066%=      5-min Rain = 0
KNH1 091754Z 26006KT 16/11 A3026 RMK A01 T01620105  RH  069%=      5-min Rain = 0
KNH1 091755Z 27007KT 16/10 A3026 RMK A01 T01640104  RH  068%=      5-min Rain = 0
KNH1 091756Z 26008KT 17/10 A3026 RMK A01 T01650100  RH  065%=      5-min Rain = 0
KNH1 091757Z 26006KT 17/10 A3026 RMK A01 T01650104  RH  067%=      5-min Rain = 0
KNH1 091758Z 25006KT 17/10 A3026 RMK A01 T01660100  RH  065%=      5-min Rain = 0
KNH1 091759Z 25007KT 17/10 A3026 RMK A01 T01660101  RH  065%=      5-min Rain = 0
KNH1 091800Z 25008KT 17/10 A3026 RMK A01 T01670103  RH  066%=      5-min Rain = 0
KNH1 091801Z 26006KT 17/10 A3026 RMK A01 T01680103  RH  065%=      5-min Rain = 0
KNH1 091802Z 26007KT 17/10 A3026 RMK A01 T01700103  RH  065%=      5-min Rain = 0
KNH1 091803Z 24007KT 17/10 A3026 RMK A01 T01700102  RH  064%=      5-min Rain = 0
KNH1 091804Z 25007KT 17/10 A3025 RMK A01 T01690103  RH  065%=      5-min Rain = 0
KNH1 091805Z 24007KT 17/10 A3025 RMK A01 T01700100  RH  063%=      5-min Rain = 0
KNH1 091806Z 24008KT 17/10 A3025 RMK A01 T01700102  RH  064%=      5-min Rain = 0
KNH1 091807Z 24007KT 17/10 A3025 RMK A01 T01700100  RH  063%=      5-min Rain = 0
KNH1 091808Z 25006KT 17/11 A3025 RMK A01 T01700105  RH  065%=      5-min Rain = 0
KNH1 091809Z 26005KT 17/11 A3025 RMK A01 T01720107  RH  065%=      5-min Rain = 0
KNH1 091810Z 28006KT 17/10 A3025 RMK A01 T01740104  RH  064%=      5-min Rain = 0
KNH1 091811Z 27006KT 17/10 A3025 RMK A01 T01740101  RH  062%=      5-min Rain = 0
KNH1 091812Z 26006KT 18/10 A3025 RMK A01 T01750102  RH  062%=      5-min Rain = 0
KNH1 091813Z 25009KT 18/10 A3025 RMK A01 T01760104  RH  063%=      5-min Rain = 0
KNH1 091814Z 24009KT 18/10 A3025 RMK A01 T01760099  RH  061%=      5-min Rain = 0
KNH1 091815Z 24008KT 18/10 A3025 RMK A01 T01750098  RH  061%=      5-min Rain = 0
KNH1 091816Z 22010KT 17/10 A3025 RMK A01 T01740098  RH  061%=      5-min Rain = 0
KNH1 091817Z 24007KT 17/10 A3025 RMK A01 T01740097  RH  061%=      5-min Rain = 0
KNH1 091818Z 24008KT 17/10 A3025 RMK A01 T01740099  RH  061%=      5-min Rain = 0
KNH1 091819Z 24007KT 18/11 A3025 RMK A01 T01770108  RH  064%=      5-min Rain = 0
KNH1 091820Z 23007KT 18/11 A3024 RMK A01 T01790107  RH  063%=      5-min Rain = 0
KNH1 091821Z 23007KT 18/10 A3024 RMK A01 T01790100  RH  060%=      5-min Rain = 0
KNH1 091822Z 24009KT 18/10 A3024 RMK A01 T01780102  RH  061%=      5-min Rain = 0
KNH1 091823Z 25009KT 18/10 A3024 RMK A01 T01780098  RH  059%=      5-min Rain = 0
KNH1 091824Z 24008KT 18/10 A3024 RMK A01 T01780098  RH  059%=      5-min Rain = 0
KNH1 091825Z 24009KT 18/09 A3024 RMK A01 T01800094  RH  057%=      5-min Rain = 0
KNH1 091826Z 24010KT 18/09 A3024 RMK A01 T01800090  RH  056%=      5-min Rain = 0
KNH1 091827Z 24009KT 18/09 A3024 RMK A01 T01790091  RH  056%=      5-min Rain = 0
KNH1 091828Z 24009KT 18/09 A3024 RMK A01 T01790092  RH  057%=      5-min Rain = 0
KNH1 091829Z 24009KT 18/09 A3024 RMK A01 T01800090  RH  056%=      5-min Rain = 0
KNH1 091830Z 24008KT 18/09 A3024 RMK A01 T01800091  RH  056%=      5-min Rain = 0
KNH1 091831Z 24008KT 18/10 A3023 RMK A01 T01800097  RH  058%=      5-min Rain = 0
KNH1 091832Z 24009KT 18/10 A3023 RMK A01 T01820099  RH  058%=      5-min Rain = 0
KNH1 091833Z 26009KT 18/09 A3023 RMK A01 T01830093  RH  056%=      5-min Rain = 0
KNH1 091834Z 24010KT 18/10 A3023 RMK A01 T01830095  RH  057%=      5-min Rain = 0
KNH1 091835Z 24011KT 18/10 A3023 RMK A01 T01840096  RH  057%=      5-min Rain = 0
KNH1 091836Z 24010KT 18/09 A3023 RMK A01 T01830087  RH  054%=      5-min Rain = 0
KNH1 091837Z 26008KT 18/09 A3023 RMK A01 T01820094  RH  057%=      5-min Rain = 0
KNH1 091838Z 24010KT 18/09 A3023 RMK A01 T01820093  RH  056%=      5-min Rain = 0
KNH1 091839Z 24009KT 18/09 A3023 RMK A01 T01830092  RH  055%=      5-min Rain = 0
KNH1 091840Z 24009KT 18/09 A3023 RMK A01 T01820092  RH  056%=      5-min Rain = 0
KNH1 091841Z 25009KT 18/09 A3023 RMK A01 T01810088  RH  054%=      5-min Rain = 0
KNH1 091842Z 27008KT 18/09 A3023 RMK A01 T01820092  RH  056%=      5-min Rain = 0
KNH1 091843Z 25011KT 18/09 A3023 RMK A01 T01840093  RH  055%=      5-min Rain = 0
KNH1 091844Z 25010KT 18/09 A3023 RMK A01 T01840094  RH  056%=      5-min Rain = 0
KNH1 091845Z 26009KT 18/09 A3022 RMK A01 T01840090  RH  054%=      5-min Rain = 0
KNH1 091846Z 24008KT 18/09 A3022 RMK A01 T01830088  RH  054%=      5-min Rain = 0
KNH1 091847Z 24010KT 18/09 A3022 RMK A01 T01820090  RH  055%=      5-min Rain = 0
KNH1 091848Z 25010KT 18/09 A3022 RMK A01 T01830094  RH  056%=      5-min Rain = 0
KNH1 091849Z 25010KT 18/09 A3022 RMK A01 T01830091  RH  055%=      5-min Rain = 0
KNH1 091850Z 24009KT 18/09 A3022 RMK A01 T01840092  RH  055%=      5-min Rain = 0
KNH1 091851Z 24009KT 18/10 A3022 RMK A01 T01840096  RH  056%=      5-min Rain = 0
KNH1 091852Z 23008KT 18/09 A3022 RMK A01 T01840094  RH  056%=      5-min Rain = 0
KNH1 091853Z 22008KT 18/10 A3022 RMK A01 T01840098  RH  057%=      5-min Rain = 0
KNH1 091854Z 23006KT 19/10 A3022 RMK A01 T01850101  RH  058%=      5-min Rain = 0
KNH1 091855Z 24007KT 19/11 A3022 RMK A01 T01870105  RH  059%=      5-min Rain = 0
KNH1 091856Z 24009KT 19/11 A3022 RMK A01 T01900108  RH  059%=      5-min Rain = 0
KNH1 091857Z 23011KT 19/09 A3022 RMK A01 T01910090  RH  052%=      5-min Rain = 0
KNH1 091858Z 23010KT 19/09 A3022 RMK A01 T01890091  RH  053%=      5-min Rain = 0
KNH1 091859Z 24009KT 19/09 A3022 RMK A01 T01880089  RH  053%=      5-min Rain = 0
KNH1 091900Z 24010KT 19/09 A3022 RMK A01 T01870091  RH  054%=      5-min Rain = 0
KNH1 091901Z 24009KT 19/09 A3021 RMK A01 T01870092  RH  054%=      5-min Rain = 0
KNH1 091902Z 23009KT 19/09 A3021 RMK A01 T01870092  RH  054%=      5-min Rain = 0
KNH1 091903Z 24007KT 19/09 A3021 RMK A01 T01870093  RH  055%=      5-min Rain = 0
KNH1 091904Z 25010KT 19/10 A3021 RMK A01 T01890101  RH  057%=      5-min Rain = 0
KNH1 091905Z 25009KT 19/10 A3021 RMK A01 T01910098  RH  055%=      5-min Rain = 0
KNH1 091906Z 24007KT 19/10 A3021 RMK A01 T01920102  RH  056%=      5-min Rain = 0
KNH1 091907Z 24009KT 19/10 A3021 RMK A01 T01920099  RH  055%=      5-min Rain = 0
KNH1 091908Z 24008KT 19/10 A3021 RMK A01 T01910096  RH  054%=      5-min Rain = 0
KNH1 091909Z 25006KT 19/09 A3021 RMK A01 T01900093  RH  053%=      5-min Rain = 0
KNH1 091910Z 24006KT 19/09 A3021 RMK A01 T01900092  RH  053%=      5-min Rain = 0
KNH1 091911Z 24007KT 19/10 A3021 RMK A01 T01900099  RH  055%=      5-min Rain = 0
KNH1 091912Z 24006KT 19/10 A3021 RMK A01 T01910101  RH  056%=      5-min Rain = 0
KNH1 091913Z 24008KT 19/10 A3021 RMK A01 T01930103  RH  056%=      5-min Rain = 0
KNH1 091914Z 23009KT 19/10 A3021 RMK A01 T01940101  RH  055%=      5-min Rain = 0
KNH1 091915Z 22010KT 19/10 A3021 RMK A01 T01920098  RH  054%=      5-min Rain = 0
KNH1 091916Z 24008KT 19/10 A302 RMK A01 T01900095  RH  054%=      5-min Rain = 0
KNH1 091917Z 23008KT 19/10 A302 RMK A01 T01890097  RH  055%=      5-min Rain = 0
KNH1 091918Z 22010KT 19/10 A302 RMK A01 T01900097  RH  055%=      5-min Rain = 0
KNH1 091919Z 23009KT 19/10 A302 RMK A01 T01910097  RH  054%=      5-min Rain = 0
KNH1 091920Z 24008KT 19/10 A302 RMK A01 T01900097  RH  055%=      5-min Rain = 0
KNH1 091921Z 23007KT 19/10 A302 RMK A01 T01910095  RH  054%=      5-min Rain = 0
KNH1 091922Z 24006KT 19/09 A302 RMK A01 T01900092  RH  053%=      5-min Rain = 0
KNH1 091923Z 23007KT 19/10 A302 RMK A01 T01910103  RH  057%=      5-min Rain = 0
KNH1 091924Z 23007KT 19/10 A302 RMK A01 T01940101  RH  055%=      5-min Rain = 0
KNH1 091925Z 22006KT 19/09 A302 RMK A01 T01940092  RH  052%=      5-min Rain = 0
KNH1 091926Z 23005KT 19/09 A302 RMK A01 T01930092  RH  052%=      5-min Rain = 0
KNH1 091927Z 22009KT 19/10 A302 RMK A01 T01930096  RH  053%=      5-min Rain = 0
KNH1 091928Z 22008KT 19/10 A302 RMK A01 T01940096  RH  053%=      5-min Rain = 0
KNH1 091929Z 21006KT 19/10 A302 RMK A01 T01930096  RH  053%=      5-min Rain = 0
KNH1 091930Z 22008KT 19/10 A302 RMK A01 T01940099  RH  054%=      5-min Rain = 0
KNH1 091931Z 22008KT 19/10 A302 RMK A01 T01940096  RH  053%=      5-min Rain = 0
KNH1 091932Z 23009KT 19/10 A302 RMK A01 T01940102  RH  055%=      5-min Rain = 0
KNH1 091933Z 24007KT 19/09 A302 RMK A01 T01940092  RH  052%=      5-min Rain = 0
KNH1 091934Z 23008KT 19/10 A3019 RMK A01 T01940095  RH  053%=      5-min Rain = 0
KNH1 091935Z 22009KT 20/10 A3019 RMK A01 T01950097  RH  053%=      5-min Rain = 0
KNH1 091936Z 23010KT 20/10 A3019 RMK A01 T01960095  RH  052%=      5-min Rain = 0
KNH1 091937Z 23008KT 20/09 A3019 RMK A01 T01950091  RH  051%=      5-min Rain = 0
KNH1 091938Z 24007KT 19/09 A3019 RMK A01 T01940089  RH  050%=      5-min Rain = 0
KNH1 091939Z 22009KT 19/09 A3019 RMK A01 T01940091  RH  051%=      5-min Rain = 0
KNH1 091940Z 23009KT 19/09 A3019 RMK A01 T01940087  RH  050%=      5-min Rain = 0
KNH1 091941Z 22009KT 19/09 A3019 RMK A01 T01940086  RH  050%=      5-min Rain = 0
KNH1 091942Z 21011KT 19/09 A3019 RMK A01 T01940086  RH  049%=      5-min Rain = 0
KNH1 091943Z 22010KT 19/09 A3019 RMK A01 T01940086  RH  050%=      5-min Rain = 0
KNH1 091944Z 22008KT 19/09 A3019 RMK A01 T01940089  RH  051%=      5-min Rain = 0
KNH1 091945Z 22010KT 20/09 A3019 RMK A01 T01950091  RH  051%=      5-min Rain = 0
KNH1 091946Z 23009KT 20/09 A3019 RMK A01 T01960087  RH  049%=      5-min Rain = 0
KNH1 091947Z 22009KT 20/10 A3019 RMK A01 T01950095  RH  052%=      5-min Rain = 0
KNH1 091948Z 22009KT 20/10 A3019 RMK A01 T01960098  RH  053%=      5-min Rain = 0
KNH1 091949Z 23008KT 20/10 A3019 RMK A01 T01960095  RH  052%=      5-min Rain = 0
KNH1 091950Z 24008KT 20/09 A3019 RMK A01 T01960089  RH  050%=      5-min Rain = 0
KNH1 091951Z 23009KT 20/09 A3019 RMK A01 T01970088  RH  049%=      5-min Rain = 0
KNH1 091952Z 23010KT 20/08 A3019 RMK A01 T01970084  RH  048%=      5-min Rain = 0
KNH1 091953Z 22009KT 20/08 A3019 RMK A01 T01970079  RH  047%=      5-min Rain = 0
KNH1 091954Z 23009KT 20/09 A3019 RMK A01 T01960086  RH  049%=      5-min Rain = 0
KNH1 091955Z 23007KT 20/09 A3019 RMK A01 T01970090  RH  050%=      5-min Rain = 0
KNH1 091956Z 22007KT 20/09 A3019 RMK A01 T01970091  RH  050%=      5-min Rain = 0
KNH1 091957Z 22008KT 20/09 A3018 RMK A01 T01970092  RH  051%=      5-min Rain = 0
KNH1 091958Z 22008KT 20/09 A3018 RMK A01 T01970092  RH  051%=      5-min Rain = 0
KNH1 091959Z 23010KT 20/09 A3018 RMK A01 T01970085  RH  048%=      5-min Rain = 0
KNH1 092000Z 23009KT 20/09 A3018 RMK A01 T01970087  RH  049%=      5-min Rain = 0
KNH1 092001Z 24008KT 20/09 A3018 RMK A01 T01980091  RH  050%=      5-min Rain = 0
KNH1 092002Z 23009KT 20/09 A3018 RMK A01 T01990085  RH  048%=      5-min Rain = 0
KNH1 092003Z 23008KT 20/08 A3018 RMK A01 T01990083  RH  047%=      5-min Rain = 0
KNH1 092004Z 22007KT 20/09 A3018 RMK A01 T01980088  RH  049%=      5-min Rain = 0
KNH1 092005Z 23007KT 20/10 A3018 RMK A01 T02000096  RH  051%=      5-min Rain = 0
KNH1 092006Z 24007KT 20/09 A3018 RMK A01 T02010087  RH  048%=      5-min Rain = 0
KNH1 092007Z 23008KT 20/09 A3018 RMK A01 T02020090  RH  049%=      5-min Rain = 0
KNH1 092008Z 23007KT 20/09 A3018 RMK A01 T02020089  RH  048%=      5-min Rain = 0
KNH1 092009Z 23007KT 20/10 A3018 RMK A01 T02020095  RH  050%=      5-min Rain = 0
KNH1 092010Z 23009KT 20/09 A3018 RMK A01 T02020087  RH  047%=      5-min Rain = 0
KNH1 092011Z 23007KT 20/09 A3018 RMK A01 T02020089  RH  048%=      5-min Rain = 0
KNH1 092012Z 23007KT 20/09 A3018 RMK A01 T02020087  RH  048%=      5-min Rain = 0
KNH1 092013Z 24006KT 20/09 A3018 RMK A01 T02010090  RH  049%=      5-min Rain = 0
KNH1 092014Z 22007KT 20/09 A3018 RMK A01 T02020091  RH  049%=      5-min Rain = 0
KNH1 092015Z 22008KT 20/10 A3018 RMK A01 T02020095  RH  050%=      5-min Rain = 0
KNH1 092016Z 22005KT 20/09 A3018 RMK A01 T02020086  RH  047%=      5-min Rain = 0
KNH1 092017Z 22005KT 20/09 A3018 RMK A01 T02000089  RH  049%=      5-min Rain = 0
KNH1 092018Z 22006KT 20/09 A3018 RMK A01 T02000091  RH  049%=      5-min Rain = 0
KNH1 092019Z 22006KT 20/09 A3018 RMK A01 T02010091  RH  049%=      5-min Rain = 0
KNH1 092020Z 22006KT 20/09 A3018 RMK A01 T02010088  RH  048%=      5-min Rain = 0
KNH1 092021Z 24006KT 20/09 A3018 RMK A01 T02020090  RH  049%=      5-min Rain = 0
KNH1 092022Z 24007KT 20/09 A3018 RMK A01 T02030086  RH  047%=      5-min Rain = 0
KNH1 092023Z 24009KT 20/08 A3018 RMK A01 T02040084  RH  046%=      5-min Rain = 0
KNH1 092024Z 25007KT 20/08 A3018 RMK A01 T02040082  RH  045%=      5-min Rain = 0
KNH1 092025Z 24007KT 20/09 A3018 RMK A01 T02030088  RH  048%=      5-min Rain = 0
KNH1 092026Z 22007KT 20/09 A3018 RMK A01 T02030086  RH  047%=      5-min Rain = 0
KNH1 092027Z 21009KT 20/08 A3017 RMK A01 T02020084  RH  046%=      5-min Rain = 0
KNH1 092028Z 22009KT 20/09 A3018 RMK A01 T02020085  RH  047%=      5-min Rain = 0
KNH1 092029Z 21008KT 20/09 A3018 RMK A01 T02010087  RH  048%=      5-min Rain = 0
KNH1 092030Z 22008KT 20/08 A3017 RMK A01 T02010083  RH  046%=      5-min Rain = 0
KNH1 092031Z 24007KT 20/09 A3017 RMK A01 T02020089  RH  048%=      5-min Rain = 0
KNH1 092032Z 24006KT 20/09 A3017 RMK A01 T02030086  RH  047%=      5-min Rain = 0
KNH1 092033Z 23006KT 20/08 A3017 RMK A01 T02040084  RH  046%=      5-min Rain = 0
KNH1 092034Z 21008KT 21/09 A3017 RMK A01 T02050089  RH  047%=      5-min Rain = 0
KNH1 092035Z 21006KT 21/09 A3017 RMK A01 T02050088  RH  047%=      5-min Rain = 0
KNH1 092036Z 23009KT 21/09 A3017 RMK A01 T02050090  RH  048%=      5-min Rain = 0
KNH1 092037Z 23008KT 20/08 A3017 RMK A01 T02040082  RH  045%=      5-min Rain = 0
KNH1 092038Z 22006KT 20/09 A3017 RMK A01 T02030085  RH  046%=      5-min Rain = 0
KNH1 092039Z 21007KT 20/08 A3017 RMK A01 T02030083  RH  046%=      5-min Rain = 0
KNH1 092040Z 22007KT 20/09 A3017 RMK A01 T02030086  RH  047%=      5-min Rain = 0
KNH1 092041Z 21010KT 20/08 A3017 RMK A01 T02030081  RH  045%=      5-min Rain = 0
KNH1 092042Z 21008KT 20/08 A3017 RMK A01 T02020077  RH  044%=      5-min Rain = 0
KNH1 092043Z 21007KT 20/08 A3017 RMK A01 T02020081  RH  046%=      5-min Rain = 0
KNH1 092044Z 22007KT 20/08 A3017 RMK A01 T02020080  RH  045%=      5-min Rain = 0
KNH1 092045Z 22008KT 20/08 A3017 RMK A01 T02030079  RH  045%=      5-min Rain = 0
KNH1 092046Z 21008KT 20/08 A3017 RMK A01 T02030084  RH  046%=      5-min Rain = 0
KNH1 092047Z 21007KT 21/09 A3017 RMK A01 T02050089  RH  047%=      5-min Rain = 0
KNH1 092048Z 23008KT 21/09 A3017 RMK A01 T02060085  RH  046%=      5-min Rain = 0
KNH1 092049Z 23007KT 21/08 A3017 RMK A01 T02060081  RH  045%=      5-min Rain = 0
KNH1 092050Z 22009KT 21/08 A3017 RMK A01 T02060079  RH  044%=      5-min Rain = 0
KNH1 092051Z 22010KT 21/08 A3017 RMK A01 T02050077  RH  044%=      5-min Rain = 0
KNH1 092052Z 22010KT 20/08 A3017 RMK A01 T02040077  RH  044%=      5-min Rain = 0
KNH1 092053Z 21007KT 20/08 A3017 RMK A01 T02030077  RH  044%=      5-min Rain = 0
KNH1 092054Z 22007KT 20/08 A3017 RMK A01 T02040080  RH  045%=      5-min Rain = 0
KNH1 092055Z 22008KT 21/09 A3017 RMK A01 T02050088  RH  047%=      5-min Rain = 0
KNH1 092056Z 22008KT 21/09 A3017 RMK A01 T02050085  RH  046%=      5-min Rain = 0
KNH1 092057Z 22008KT 21/08 A3017 RMK A01 T02060081  RH  045%=      5-min Rain = 0
KNH1 092058Z 23009KT 21/08 A3017 RMK A01 T02050075  RH  043%=      5-min Rain = 0
KNH1 092059Z 21009KT 20/08 A3017 RMK A01 T02040078  RH  044%=      5-min Rain = 0
KNH1 092100Z 22008KT 20/08 A3017 RMK A01 T02040080  RH  045%=      5-min Rain = 0
KNH1 092101Z 22007KT 20/08 A3016 RMK A01 T02040076  RH  044%=      5-min Rain = 0
KNH1 092102Z 22006KT 21/08 A3017 RMK A01 T02050084  RH  046%=      5-min Rain = 0
KNH1 092103Z 22005KT 21/08 A3016 RMK A01 T02060082  RH  045%=      5-min Rain = 0
KNH1 092104Z 21008KT 21/08 A3016 RMK A01 T02070079  RH  044%=      5-min Rain = 0
KNH1 092105Z 20007KT 21/08 A3016 RMK A01 T02070075  RH  042%=      5-min Rain = 0
KNH1 092106Z 22008KT 21/07 A3016 RMK A01 T02060074  RH  042%=      5-min Rain = 0
KNH1 092107Z 23008KT 21/08 A3016 RMK A01 T02060081  RH  045%=      5-min Rain = 0
KNH1 092108Z 23007KT 21/08 A3016 RMK A01 T02060077  RH  043%=      5-min Rain = 0
KNH1 092109Z 24008KT 21/08 A3016 RMK A01 T02060080  RH  044%=      5-min Rain = 0
KNH1 092110Z 24006KT 21/08 A3016 RMK A01 T02070079  RH  044%=      5-min Rain = 0
KNH1 092111Z 23007KT 21/07 A3016 RMK A01 T02070074  RH  042%=      5-min Rain = 0
KNH1 092112Z 21008KT 21/08 A3016 RMK A01 T02060075  RH  043%=      5-min Rain = 0
KNH1 092113Z 22009KT 21/08 A3016 RMK A01 T02060075  RH  043%=      5-min Rain = 0
KNH1 092114Z 22009KT 21/08 A3016 RMK A01 T02060077  RH  043%=      5-min Rain = 0
KNH1 092115Z 21009KT 21/08 A3016 RMK A01 T02060077  RH  043%=      5-min Rain = 0
KNH1 092116Z 22007KT 21/07 A3016 RMK A01 T02060072  RH  042%=      5-min Rain = 0
KNH1 092117Z 22006KT 21/07 A3016 RMK A01 T02060072  RH  042%=      5-min Rain = 0
KNH1 092118Z 22007KT 21/08 A3016 RMK A01 T02060081  RH  045%=      5-min Rain = 0
KNH1 092119Z 21008KT 21/07 A3016 RMK A01 T02070072  RH  042%=      5-min Rain = 0
KNH1 092120Z 21007KT 21/07 A3016 RMK A01 T02060074  RH  042%=      5-min Rain = 0
KNH1 092121Z 21007KT 21/07 A3016 RMK A01 T02060073  RH  042%=      5-min Rain = 0
KNH1 092122Z 23006KT 21/07 A3016 RMK A01 T02060074  RH  042%=      5-min Rain = 0
KNH1 092123Z 22007KT 21/07 A3016 RMK A01 T02070068  RH  041%=      5-min Rain = 0
KNH1 092124Z 22007KT 21/07 A3016 RMK A01 T02070065  RH  040%=      5-min Rain = 0
KNH1 092125Z 22007KT 21/06 A3016 RMK A01 T02080064  RH  039%=      5-min Rain = 0
KNH1 092126Z 21006KT 21/06 A3016 RMK A01 T02070057  RH  037%=      5-min Rain = 0
KNH1 092127Z 22008KT 21/06 A3016 RMK A01 T02070063  RH  039%=      5-min Rain = 0
KNH1 092128Z 22006KT 21/07 A3016 RMK A01 T02060071  RH  042%=      5-min Rain = 0
KNH1 092129Z 22008KT 21/07 A3016 RMK A01 T02060069  RH  041%=      5-min Rain = 0
KNH1 092130Z 22009KT 21/07 A3016 RMK A01 T02060072  RH  042%=      5-min Rain = 0
KNH1 092131Z 23008KT 21/06 A3016 RMK A01 T02060063  RH  039%=      5-min Rain = 0
KNH1 092132Z 22008KT 21/07 A3016 RMK A01 T02060065  RH  040%=      5-min Rain = 0
KNH1 092133Z 23008KT 21/07 A3016 RMK A01 T02050073  RH  042%=      5-min Rain = 0
KNH1 092134Z 23008KT 21/07 A3016 RMK A01 T02050071  RH  042%=      5-min Rain = 0
KNH1 092135Z 22007KT 21/06 A3016 RMK A01 T02050063  RH  039%=      5-min Rain = 0
KNH1 092136Z 23007KT 21/06 A3016 RMK A01 T02050064  RH  040%=      5-min Rain = 0
KNH1 092137Z 22008KT 21/06 A3016 RMK A01 T02050064  RH  040%=      5-min Rain = 0
KNH1 092138Z 22008KT 21/06 A3016 RMK A01 T02050062  RH  039%=      5-min Rain = 0
KNH1 092139Z 22008KT 21/06 A3015 RMK A01 T02050059  RH  038%=      5-min Rain = 0
KNH1 092140Z 22006KT 21/07 A3016 RMK A01 T02050065  RH  040%=      5-min Rain = 0
KNH1 092141Z 23006KT 21/07 A3015 RMK A01 T02060067  RH  040%=      5-min Rain = 0
KNH1 092142Z 23006KT 21/06 A3015 RMK A01 T02070064  RH  039%=      5-min Rain = 0
KNH1 092143Z 22007KT 21/06 A3015 RMK A01 T02070060  RH  038%=      5-min Rain = 0
KNH1 092144Z 22008KT 21/06 A3015 RMK A01 T02070056  RH  037%=      5-min Rain = 0
KNH1 092145Z 22006KT 21/06 A3015 RMK A01 T02060055  RH  037%=      5-min Rain = 0
KNH1 092146Z 23005KT 21/07 A3015 RMK A01 T02060068  RH  041%=      5-min Rain = 0
KNH1 092147Z 24006KT 21/07 A3015 RMK A01 T02070069  RH  041%=      5-min Rain = 0
KNH1 092148Z 25007KT 21/07 A3015 RMK A01 T02080070  RH  041%=      5-min Rain = 0
KNH1 092149Z 23008KT 21/06 A3015 RMK A01 T02080063  RH  039%=      5-min Rain = 0
KNH1 092150Z 23006KT 21/05 A3015 RMK A01 T02080046  RH  035%=      5-min Rain = 0
KNH1 092151Z 22008KT 21/05 A3015 RMK A01 T02080053  RH  036%=      5-min Rain = 0
KNH1 092152Z 23007KT 21/05 A3015 RMK A01 T02080048  RH  035%=      5-min Rain = 0
KNH1 092153Z 23007KT 21/05 A3015 RMK A01 T02080051  RH  036%=      5-min Rain = 0
KNH1 092154Z 23008KT 21/06 A3015 RMK A01 T02070056  RH  037%=      5-min Rain = 0
KNH1 092155Z 24009KT 21/05 A3015 RMK A01 T02070052  RH  036%=      5-min Rain = 0
KNH1 092156Z 23008KT 21/06 A3015 RMK A01 T02060055  RH  037%=      5-min Rain = 0
KNH1 092157Z 23007KT 21/06 A3015 RMK A01 T02060056  RH  038%=      5-min Rain = 0
KNH1 092158Z 22007KT 21/06 A3015 RMK A01 T02050059  RH  038%=      5-min Rain = 0
KNH1 092159Z 22007KT 21/06 A3015 RMK A01 T02050055  RH  038%=      5-min Rain = 0
KNH1 092200Z 23007KT 20/05 A3015 RMK A01 T02040052  RH  037%=      5-min Rain = 0
KNH1 092201Z 25007KT 20/06 A3015 RMK A01 T02030059  RH  039%=      5-min Rain = 0
KNH1 092202Z 24008KT 20/06 A3015 RMK A01 T02030057  RH  038%=      5-min Rain = 0
KNH1 092203Z 24007KT 20/05 A3015 RMK A01 T02030050  RH  037%=      5-min Rain = 0
KNH1 092204Z 24007KT 20/05 A3015 RMK A01 T02030054  RH  038%=      5-min Rain = 0
KNH1 092205Z 23007KT 20/06 A3015 RMK A01 T02030061  RH  039%=      5-min Rain = 0
KNH1 092206Z 23007KT 20/06 A3015 RMK A01 T02040064  RH  040%=      5-min Rain = 0
KNH1 092207Z 23005KT 20/07 A3015 RMK A01 T02040068  RH  041%=      5-min Rain = 0
KNH1 092208Z 23005KT 20/07 A3015 RMK A01 T02040071  RH  042%=      5-min Rain = 0
KNH1 092209Z 23006KT 20/06 A3015 RMK A01 T02040064  RH  040%=      5-min Rain = 0
KNH1 092210Z 24005KT 20/06 A3015 RMK A01 T02040061  RH  039%=      5-min Rain = 0
KNH1 092211Z 23005KT 21/07 A3015 RMK A01 T02050067  RH  041%=      5-min Rain = 0
KNH1 092212Z 23006KT 21/07 A3015 RMK A01 T02050065  RH  040%=      5-min Rain = 0
KNH1 092213Z 23006KT 21/06 A3015 RMK A01 T02050063  RH  039%=      5-min Rain = 0
KNH1 092214Z 23008KT 21/06 A3015 RMK A01 T02050059  RH  039%=      5-min Rain = 0
KNH1 092215Z 24007KT 21/06 A3015 RMK A01 T02050056  RH  038%=      5-min Rain = 0
KNH1 092216Z 24007KT 21/06 A3015 RMK A01 T02050062  RH  039%=      5-min Rain = 0
KNH1 092217Z 23007KT 21/06 A3014 RMK A01 T02050060  RH  039%=      5-min Rain = 0
KNH1 092218Z 22007KT 21/06 A3014 RMK A01 T02050061  RH  039%=      5-min Rain = 0
KNH1 092219Z 22008KT 21/06 A3014 RMK A01 T02050058  RH  038%=      5-min Rain = 0
KNH1 092220Z 22007KT 21/06 A3014 RMK A01 T02050062  RH  039%=      5-min Rain = 0
KNH1 092221Z 24007KT 20/06 A3014 RMK A01 T02040060  RH  039%=      5-min Rain = 0
KNH1 092222Z 24008KT 20/05 A3014 RMK A01 T02040052  RH  037%=      5-min Rain = 0
KNH1 092223Z 24008KT 20/05 A3014 RMK A01 T02040045  RH  035%=      5-min Rain = 0
KNH1 092224Z 23008KT 20/05 A3014 RMK A01 T02040050  RH  036%=      5-min Rain = 0
KNH1 092225Z 23008KT 20/05 A3015 RMK A01 T02040052  RH  037%=      5-min Rain = 0
KNH1 092226Z 23008KT 20/06 A3015 RMK A01 T02040056  RH  038%=      5-min Rain = 0
KNH1 092227Z 23007KT 20/06 A3015 RMK A01 T02030057  RH  038%=      5-min Rain = 0
KNH1 092228Z 23006KT 20/06 A3014 RMK A01 T02020060  RH  039%=      5-min Rain = 0
KNH1 092229Z 23008KT 20/06 A3014 RMK A01 T02020059  RH  039%=      5-min Rain = 0
KNH1 092230Z 24006KT 20/06 A3014 RMK A01 T02010057  RH  039%=      5-min Rain = 0
KNH1 092231Z 24007KT 20/06 A3014 RMK A01 T02010056  RH  039%=      5-min Rain = 0
KNH1 092232Z 24007KT 20/05 A3014 RMK A01 T02010053  RH  038%=      5-min Rain = 0
KNH1 092233Z 23006KT 20/05 A3014 RMK A01 T02010054  RH  038%=      5-min Rain = 0
KNH1 092234Z 24006KT 20/06 A3014 RMK A01 T02010062  RH  040%=      5-min Rain = 0
KNH1 092235Z 24006KT 20/06 A3014 RMK A01 T02010063  RH  041%=      5-min Rain = 0
KNH1 092236Z 24006KT 20/06 A3014 RMK A01 T02010060  RH  040%=      5-min Rain = 0
KNH1 092237Z 24006KT 20/06 A3014 RMK A01 T02010062  RH  040%=      5-min Rain = 0
KNH1 092238Z 24006KT 20/06 A3014 RMK A01 T02000062  RH  040%=      5-min Rain = 0
KNH1 092239Z 25006KT 20/06 A3014 RMK A01 T02000062  RH  041%=      5-min Rain = 0
KNH1 092240Z 25007KT 20/07 A3014 RMK A01 T01990066  RH  042%=      5-min Rain = 0
KNH1 092241Z 24006KT 20/06 A3014 RMK A01 T01980064  RH  042%=      5-min Rain = 0
KNH1 092242Z 24007KT 20/06 A3014 RMK A01 T01970061  RH  041%=      5-min Rain = 0
KNH1 092243Z 25007KT 20/06 A3014 RMK A01 T01970060  RH  041%=      5-min Rain = 0
KNH1 092244Z 24007KT 20/06 A3014 RMK A01 T01970063  RH  042%=      5-min Rain = 0
KNH1 092245Z 24007KT 20/06 A3014 RMK A01 T01980064  RH  042%=      5-min Rain = 0
KNH1 092246Z 24006KT 20/06 A3014 RMK A01 T01980058  RH  040%=      5-min Rain = 0
KNH1 092247Z 24006KT 20/06 A3014 RMK A01 T01990061  RH  041%=      5-min Rain = 0
KNH1 092248Z 24006KT 20/06 A3014 RMK A01 T01990060  RH  040%=      5-min Rain = 0
KNH1 092249Z 23006KT 20/06 A3014 RMK A01 T01990060  RH  040%=      5-min Rain = 0
KNH1 092250Z 23006KT 20/06 A3014 RMK A01 T01990060  RH  040%=      5-min Rain = 0
KNH1 092251Z 24007KT 20/06 A3014 RMK A01 T01990058  RH  040%=      5-min Rain = 0
KNH1 092252Z 24007KT 20/06 A3014 RMK A01 T01990056  RH  039%=      5-min Rain = 0
KNH1 092253Z 24007KT 20/06 A3014 RMK A01 T01980063  RH  041%=      5-min Rain = 0
KNH1 092254Z 24007KT 20/06 A3014 RMK A01 T01980060  RH  040%=      5-min Rain = 0
KNH1 092255Z 23007KT 20/06 A3014 RMK A01 T01970060  RH  041%=      5-min Rain = 0
KNH1 092256Z 24007KT 20/06 A3014 RMK A01 T01960062  RH  042%=      5-min Rain = 0
KNH1 092257Z 23006KT 20/06 A3014 RMK A01 T01960063  RH  042%=      5-min Rain = 0
KNH1 092258Z 23006KT 20/06 A3014 RMK A01 T01950064  RH  042%=      5-min Rain = 0
KNH1 092259Z 23006KT 19/06 A3014 RMK A01 T01940064  RH  043%=      5-min Rain = 0
KNH1 092300Z 23005KT 19/07 A3014 RMK A01 T01930066  RH  044%=      5-min Rain = 0
KNH1 092301Z 24007KT 19/06 A3014 RMK A01 T01920063  RH  043%=      5-min Rain = 0
KNH1 092302Z 23007KT 19/06 A3014 RMK A01 T01920060  RH  042%=      5-min Rain = 0
KNH1 092303Z 23007KT 19/06 A3014 RMK A01 T01910063  RH  043%=      5-min Rain = 0
KNH1 092304Z 23007KT 19/06 A3014 RMK A01 T01900062  RH  043%=      5-min Rain = 0
KNH1 092305Z 23007KT 19/06 A3014 RMK A01 T01890064  RH  044%=      5-min Rain = 0
KNH1 092306Z 23006KT 19/07 A3014 RMK A01 T01880067  RH  045%=      5-min Rain = 0
KNH1 092307Z 23006KT 19/07 A3014 RMK A01 T01860066  RH  045%=      5-min Rain = 0
KNH1 092308Z 23006KT 19/07 A3014 RMK A01 T01850066  RH  046%=      5-min Rain = 0
KNH1 092309Z 23006KT 18/07 A3014 RMK A01 T01840067  RH  046%=      5-min Rain = 0
KNH1 092310Z 23006KT 18/07 A3014 RMK A01 T01830068  RH  047%=      5-min Rain = 0
KNH1 092311Z 23006KT 18/07 A3014 RMK A01 T01820068  RH  047%=      5-min Rain = 0
KNH1 092312Z 23006KT 18/07 A3014 RMK A01 T01810067  RH  047%=      5-min Rain = 0
KNH1 092313Z 23006KT 18/07 A3014 RMK A01 T01810069  RH  048%=      5-min Rain = 0
KNH1 092314Z 23006KT 18/07 A3014 RMK A01 T01800069  RH  048%=      5-min Rain = 0
KNH1 092315Z 23006KT 18/07 A3014 RMK A01 T01800070  RH  049%=      5-min Rain = 0
KNH1 092316Z 23006KT 18/07 A3014 RMK A01 T01790071  RH  049%=      5-min Rain = 0
KNH1 092317Z 22005KT 18/07 A3014 RMK A01 T01790072  RH  049%=      5-min Rain = 0
KNH1 092318Z 22005KT 18/07 A3014 RMK A01 T01790073  RH  050%=      5-min Rain = 0
KNH1 092319Z 22005KT 18/07 A3014 RMK A01 T01780073  RH  050%=      5-min Rain = 0
KNH1 092320Z 22005KT 18/07 A3014 RMK A01 T01780073  RH  050%=      5-min Rain = 0
KNH1 092321Z 22006KT 18/08 A3014 RMK A01 T01760075  RH  051%=      5-min Rain = 0
KNH1 092322Z 22005KT 18/08 A3014 RMK A01 T01750075  RH  052%=      5-min Rain = 0
KNH1 092323Z 22005KT 17/08 A3014 RMK A01 T01740076  RH  052%=      5-min Rain = 0
KNH1 092324Z 22006KT 17/08 A3014 RMK A01 T01740076  RH  053%=      5-min Rain = 0
KNH1 092325Z 23006KT 17/08 A3014 RMK A01 T01730076  RH  053%=      5-min Rain = 0
KNH1 092326Z 22005KT 17/08 A3014 RMK A01 T01730076  RH  053%=      5-min Rain = 0
KNH1 092327Z 22005KT 17/08 A3014 RMK A01 T01730076  RH  053%=      5-min Rain = 0
KNH1 092328Z 22005KT 17/08 A3014 RMK A01 T01720077  RH  053%=      5-min Rain = 0
KNH1 092329Z 22005KT 17/08 A3014 RMK A01 T01720078  RH  054%=      5-min Rain = 0
KNH1 092330Z 22005KT 17/08 A3014 RMK A01 T01710077  RH  054%=      5-min Rain = 0
KNH1 092331Z 22005KT 17/08 A3014 RMK A01 T01700078  RH  055%=      5-min Rain = 0
KNH1 092332Z 22005KT 17/08 A3014 RMK A01 T01700079  RH  055%=      5-min Rain = 0
KNH1 092333Z 22006KT 17/08 A3014 RMK A01 T01680080  RH  056%=      5-min Rain = 0
KNH1 092334Z 22006KT 17/08 A3014 RMK A01 T01670081  RH  057%=      5-min Rain = 0
KNH1 092335Z 22006KT 17/08 A3014 RMK A01 T01660082  RH  058%=      5-min Rain = 0
KNH1 092336Z 22006KT 16/08 A3014 RMK A01 T01640083  RH  059%=      5-min Rain = 0
KNH1 092337Z 22006KT 16/08 A3014 RMK A01 T01620083  RH  059%=      5-min Rain = 0
KNH1 092338Z 22006KT 16/08 A3014 RMK A01 T01610083  RH  060%=      5-min Rain = 0
KNH1 092339Z 22006KT 16/08 A3014 RMK A01 T01600083  RH  060%=      5-min Rain = 0
KNH1 092340Z 22006KT 16/08 A3014 RMK A01 T01590083  RH  061%=      5-min Rain = 0
KNH1 092341Z 22006KT 16/08 A3014 RMK A01 T01580083  RH  061%=      5-min Rain = 0
KNH1 092342Z 22006KT 16/08 A3014 RMK A01 T01580084  RH  061%=      5-min Rain = 0
KNH1 092343Z 21006KT 16/08 A3014 RMK A01 T01570084  RH  062%=      5-min Rain = 0
KNH1 092344Z 21006KT 16/08 A3014 RMK A01 T01570084  RH  062%=      5-min Rain = 0
KNH1 092345Z 22006KT 16/08 A3014 RMK A01 T01560084  RH  062%=      5-min Rain = 0
KNH1 092346Z 21005KT 16/08 A3014 RMK A01 T01550084  RH  062%=      5-min Rain = 0
KNH1 092347Z 20005KT 16/08 A3014 RMK A01 T01550082  RH  062%=      5-min Rain = 0
KNH1 092348Z 20005KT 16/08 A3014 RMK A01 T01550080  RH  061%=      5-min Rain = 0
KNH1 092349Z 21005KT 16/08 A3014 RMK A01 T01550079  RH  061%=      5-min Rain = 0
KNH1 092350Z 21006KT 16/08 A3014 RMK A01 T01560079  RH  060%=      5-min Rain = 0
KNH1 092351Z 20005KT 16/08 A3014 RMK A01 T01560079  RH  060%=      5-min Rain = 0
KNH1 092352Z 20005KT 16/08 A3014 RMK A01 T01560079  RH  060%=      5-min Rain = 0
KNH1 092353Z 20006KT 16/08 A3014 RMK A01 T01560079  RH  060%=      5-min Rain = 0
KNH1 092354Z 20006KT 16/08 A3014 RMK A01 T01550080  RH  061%=      5-min Rain = 0
KNH1 092355Z 20006KT 15/08 A3014 RMK A01 T01540081  RH  062%=      5-min Rain = 0
KNH1 092356Z 20006KT 15/08 A3014 RMK A01 T01520081  RH  062%=      5-min Rain = 0
KNH1 092357Z 20006KT 15/08 A3014 RMK A01 T01500080  RH  063%=      5-min Rain = 0
KNH1 092358Z 20006KT 15/08 A3014 RMK A01 T01490080  RH  063%=      5-min Rain = 0
KNH1 092359Z 20006KT 15/08 A3014 RMK A01 T01490079  RH  063%=      5-min Rain = 0
KNH1 100000Z 21006KT 15/08 A3014 RMK A01 T01490079  RH  063%=      5-min Rain = 0
KNH1 100001Z 21006KT 15/08 A3014 RMK A01 T01480078  RH  063%=      5-min Rain = 0
KNH1 100002Z 21007KT 15/08 A3014 RMK A01 T01480077  RH  062%=      5-min Rain = 0
KNH1 100003Z 21007KT 15/08 A3014 RMK A01 T01480077  RH  062%=      5-min Rain = 0
KNH1 100004Z 20007KT 15/08 A3014 RMK A01 T01480076  RH  062%=      5-min Rain = 0
KNH1 100005Z 18006KT 15/07 A3014 RMK A01 T01490072  RH  060%=      5-min Rain = 0
KNH1 100006Z 18006KT 15/07 A3014 RMK A01 T01500069  RH  058%=      5-min Rain = 0
KNH1 100007Z 18006KT 15/07 A3014 RMK A01 T01510068  RH  058%=      5-min Rain = 0
KNH1 100008Z 19007KT 15/07 A3014 RMK A01 T01520067  RH  057%=      5-min Rain = 0
KNH1 100009Z 19007KT 15/07 A3014 RMK A01 T01530070  RH  057%=      5-min Rain = 0
KNH1 100010Z 19007KT 15/07 A3014 RMK A01 T01520073  RH  059%=      5-min Rain = 0
KNH1 100011Z 19006KT 15/07 A3014 RMK A01 T01490073  RH  061%=      5-min Rain = 0
KNH1 100012Z 19007KT 15/07 A3014 RMK A01 T01470073  RH  061%=      5-min Rain = 0
KNH1 100013Z 19006KT 15/07 A3014 RMK A01 T01450074  RH  062%=      5-min Rain = 0
KNH1 100014Z 19006KT 14/08 A3014 RMK A01 T01440076  RH  063%=      5-min Rain = 0
KNH1 100015Z 19006KT 14/08 A3014 RMK A01 T01430077  RH  064%=      5-min Rain = 0
KNH1 100016Z 19006KT 14/08 A3014 RMK A01 T01430078  RH  065%=      5-min Rain = 0
KNH1 100017Z 19006KT 14/08 A3014 RMK A01 T01420079  RH  066%=      5-min Rain = 0
KNH1 100018Z 19007KT 14/08 A3014 RMK A01 T01420081  RH  067%=      5-min Rain = 0
KNH1 100019Z 19007KT 14/08 A3014 RMK A01 T01420083  RH  067%=      5-min Rain = 0
KNH1 100020Z 19007KT 14/08 A3014 RMK A01 T01420084  RH  068%=      5-min Rain = 0
KNH1 100021Z 19007KT 14/08 A3014 RMK A01 T01420084  RH  068%=      5-min Rain = 0
KNH1 100022Z 19007KT 14/08 A3014 RMK A01 T01410084  RH  068%=      5-min Rain = 0
KNH1 100023Z 19007KT 14/09 A3014 RMK A01 T01410085  RH  069%=      5-min Rain = 0
KNH1 100024Z 19007KT 14/09 A3014 RMK A01 T01410085  RH  069%=      5-min Rain = 0
KNH1 100025Z 19007KT 14/09 A3014 RMK A01 T01410086  RH  069%=      5-min Rain = 0
KNH1 100026Z 19007KT 14/09 A3014 RMK A01 T01400086  RH  070%=      5-min Rain = 0
KNH1 100027Z 19007KT 14/09 A3014 RMK A01 T01400086  RH  070%=      5-min Rain = 0
KNH1 100028Z 19007KT 14/09 A3014 RMK A01 T01390087  RH  071%=      5-min Rain = 0
KNH1 100029Z 19007KT 14/09 A3014 RMK A01 T01380087  RH  071%=      5-min Rain = 0
KNH1 100030Z 19007KT 14/09 A3014 RMK A01 T01370087  RH  072%=      5-min Rain = 0
KNH1 100031Z 19006KT 14/09 A3014 RMK A01 T01370087  RH  072%=      5-min Rain = 0
KNH1 100032Z 19006KT 14/09 A3014 RMK A01 T01370088  RH  072%=      5-min Rain = 0
KNH1 100033Z 19006KT 14/09 A3014 RMK A01 T01370088  RH  072%=      5-min Rain = 0
KNH1 100034Z 19006KT 14/09 A3014 RMK A01 T01360087  RH  072%=      5-min Rain = 0
KNH1 100035Z 19006KT 14/09 A3014 RMK A01 T01360088  RH  072%=      5-min Rain = 0
KNH1 100036Z 19006KT 14/09 A3014 RMK A01 T01360088  RH  073%=      5-min Rain = 0
KNH1 100037Z 19006KT 14/09 A3014 RMK A01 T01360088  RH  072%=      5-min Rain = 0
KNH1 100038Z 18006KT 14/09 A3014 RMK A01 T01360087  RH  072%=      5-min Rain = 0
KNH1 100039Z 18006KT 14/09 A3014 RMK A01 T01370087  RH  072%=      5-min Rain = 0
KNH1 100040Z 18006KT 14/09 A3014 RMK A01 T01380087  RH  072%=      5-min Rain = 0
KNH1 100041Z 18006KT 14/09 A3014 RMK A01 T01380087  RH  071%=      5-min Rain = 0
KNH1 100042Z 18006KT 14/09 A3014 RMK A01 T01380087  RH  071%=      5-min Rain = 0
KNH1 100043Z 18007KT 14/09 A3014 RMK A01 T01380087  RH  071%=      5-min Rain = 0
KNH1 100044Z 18006KT 14/09 A3014 RMK A01 T01370087  RH  072%=      5-min Rain = 0
KNH1 100045Z 18006KT 14/09 A3014 RMK A01 T01370087  RH  072%=      5-min Rain = 0
KNH1 100046Z 18007KT 14/09 A3014 RMK A01 T01370087  RH  072%=      5-min Rain = 0
KNH1 100047Z 18007KT 14/09 A3014 RMK A01 T01360087  RH  073%=      5-min Rain = 0
KNH1 100048Z 19007KT 14/09 A3014 RMK A01 T01350087  RH  073%=      5-min Rain = 0
KNH1 100049Z 19007KT 14/09 A3014 RMK A01 T01350087  RH  073%=      5-min Rain = 0
KNH1 100050Z 19007KT 13/09 A3014 RMK A01 T01340087  RH  074%=      5-min Rain = 0
KNH1 100051Z 19006KT 13/09 A3014 RMK A01 T01320087  RH  074%=      5-min Rain = 0
KNH1 100052Z 18006KT 13/09 A3014 RMK A01 T01320087  RH  074%=      5-min Rain = 0
KNH1 100053Z 18006KT 13/09 A3014 RMK A01 T01320086  RH  074%=      5-min Rain = 0
KNH1 100054Z 18006KT 13/09 A3014 RMK A01 T01330085  RH  073%=      5-min Rain = 0
KNH1 100055Z 18006KT 13/09 A3014 RMK A01 T01340085  RH  072%=      5-min Rain = 0
KNH1 100056Z 18006KT 14/09 A3014 RMK A01 T01350085  RH  072%=      5-min Rain = 0
KNH1 100057Z 18006KT 14/09 A3014 RMK A01 T01360085  RH  071%=      5-min Rain = 0
KNH1 100058Z 18006KT 14/09 A3014 RMK A01 T01360085  RH  071%=      5-min Rain = 0
KNH1 100059Z 18005KT 14/09 A3014 RMK A01 T01360085  RH  071%=      5-min Rain = 0
KNH1 100100Z 18005KT 14/08 A3014 RMK A01 T01350084  RH  071%=      5-min Rain = 0
KNH1 100101Z 18005KT 14/09 A3014 RMK A01 T01360085  RH  071%=      5-min Rain = 0
KNH1 100102Z 18005KT 14/08 A3014 RMK A01 T01350084  RH  071%=      5-min Rain = 0
KNH1 100103Z 17005KT 14/08 A3014 RMK A01 T01350084  RH  071%=      5-min Rain = 0
KNH1 100104Z 18005KT 14/08 A3014 RMK A01 T01350084  RH  071%=      5-min Rain = 0
KNH1 100105Z 17005KT 14/08 A3014 RMK A01 T01350084  RH  071%=      5-min Rain = 0
KNH1 100106Z 18005KT 13/08 A3014 RMK A01 T01340084  RH  071%=      5-min Rain = 0
KNH1 100107Z 18005KT 13/08 A3014 RMK A01 T01340084  RH  072%=      5-min Rain = 0
KNH1 100108Z 18005KT 13/08 A3014 RMK A01 T01330084  RH  072%=      5-min Rain = 0
KNH1 100109Z 18005KT 13/08 A3014 RMK A01 T01320084  RH  073%=      5-min Rain = 0
KNH1 100110Z 18005KT 13/08 A3014 RMK A01 T01310084  RH  073%=      5-min Rain = 0
KNH1 100111Z 18005KT 13/08 A3014 RMK A01 T01300084  RH  074%=      5-min Rain = 0
KNH1 100112Z 18005KT 13/08 A3014 RMK A01 T01290084  RH  074%=      5-min Rain = 0
KNH1 100113Z 18006KT 13/09 A3015 RMK A01 T01290085  RH  074%=      5-min Rain = 0
KNH1 100114Z 18006KT 13/09 A3015 RMK A01 T01280085  RH  075%=      5-min Rain = 0
KNH1 100115Z 18006KT 13/08 A3015 RMK A01 T01270084  RH  075%=      5-min Rain = 0
KNH1 100116Z 18006KT 13/08 A3015 RMK A01 T01260084  RH  076%=      5-min Rain = 0
KNH1 100117Z 18006KT 13/08 A3015 RMK A01 T01260084  RH  076%=      5-min Rain = 0
KNH1 100118Z 18006KT 13/08 A3015 RMK A01 T01250084  RH  076%=      5-min Rain = 0
KNH1 100119Z 18005KT 13/08 A3015 RMK A01 T01250084  RH  076%=      5-min Rain = 0
KNH1 100120Z 18006KT 13/08 A3015 RMK A01 T01250083  RH  076%=      5-min Rain = 0
KNH1 100121Z 17005KT 13/08 A3015 RMK A01 T01250083  RH  076%=      5-min Rain = 0
KNH1 100122Z 18006KT 13/08 A3015 RMK A01 T01250083  RH  076%=      5-min Rain = 0
KNH1 100123Z 18006KT 13/08 A3015 RMK A01 T01250083  RH  076%=      5-min Rain = 0
KNH1 100124Z 18006KT 13/08 A3015 RMK A01 T01250083  RH  076%=      5-min Rain = 0
KNH1 100125Z 18006KT 13/08 A3015 RMK A01 T01260083  RH  075%=      5-min Rain = 0
KNH1 100126Z 18006KT 13/08 A3015 RMK A01 T01260083  RH  075%=      5-min Rain = 0
KNH1 100127Z 17006KT 13/08 A3015 RMK A01 T01260082  RH  075%=      5-min Rain = 0
KNH1 100128Z 18006KT 13/08 A3015 RMK A01 T01270082  RH  074%=      5-min Rain = 0
KNH1 100129Z 18006KT 13/08 A3015 RMK A01 T01270082  RH  074%=      5-min Rain = 0
KNH1 100130Z 18005KT 13/08 A3015 RMK A01 T01270082  RH  074%=      5-min Rain = 0
KNH1 100131Z 18006KT 13/08 A3015 RMK A01 T01260082  RH  074%=      5-min Rain = 0
KNH1 100132Z 18005KT 13/08 A3015 RMK A01 T01250082  RH  075%=      5-min Rain = 0
KNH1 100133Z 18005KT 12/08 A3015 RMK A01 T01240082  RH  075%=      5-min Rain = 0
KNH1 100134Z 18005KT 12/08 A3015 RMK A01 T01240082  RH  076%=      5-min Rain = 0
KNH1 100135Z 18006KT 12/08 A3015 RMK A01 T01240082  RH  076%=      5-min Rain = 0
KNH1 100136Z 18005KT 12/08 A3015 RMK A01 T01230082  RH  076%=      5-min Rain = 0
KNH1 100137Z 18005KT 12/08 A3015 RMK A01 T01230082  RH  076%=      5-min Rain = 0
KNH1 100138Z 18006KT 12/08 A3015 RMK A01 T01220082  RH  076%=      5-min Rain = 0
KNH1 100139Z 18006KT 12/08 A3015 RMK A01 T01210082  RH  077%=      5-min Rain = 0
KNH1 100140Z 18006KT 12/08 A3015 RMK A01 T01200082  RH  077%=      5-min Rain = 0
KNH1 100141Z 18006KT 12/08 A3015 RMK A01 T01190081  RH  078%=      5-min Rain = 0
KNH1 100142Z 18006KT 12/08 A3015 RMK A01 T01190082  RH  078%=      5-min Rain = 0
KNH1 100143Z 18006KT 12/08 A3015 RMK A01 T01180082  RH  078%=      5-min Rain = 0
KNH1 100144Z 18006KT 12/08 A3015 RMK A01 T01180081  RH  078%=      5-min Rain = 0
KNH1 100145Z 18006KT 12/08 A3015 RMK A01 T01180082  RH  078%=      5-min Rain = 0
KNH1 100146Z 18006KT 12/08 A3015 RMK A01 T01180081  RH  078%=      5-min Rain = 0
KNH1 100147Z 18006KT 12/08 A3015 RMK A01 T01180082  RH  078%=      5-min Rain = 0
KNH1 100148Z 18006KT 12/08 A3015 RMK A01 T01180081  RH  078%=      5-min Rain = 0
KNH1 100149Z 18006KT 12/08 A3015 RMK A01 T01180081  RH  078%=      5-min Rain = 0
KNH1 100150Z 18006KT 12/08 A3015 RMK A01 T01180081  RH  078%=      5-min Rain = 0
KNH1 100151Z 18006KT 12/08 A3015 RMK A01 T01180081  RH  078%=      5-min Rain = 0
KNH1 100152Z 18007KT 12/08 A3015 RMK A01 T01180081  RH  078%=      5-min Rain = 0
KNH1 100153Z 18007KT 12/08 A3015 RMK A01 T01190081  RH  078%=      5-min Rain = 0
KNH1 100154Z 18007KT 12/08 A3015 RMK A01 T01190081  RH  078%=      5-min Rain = 0
KNH1 100155Z 18007KT 12/08 A3015 RMK A01 T01190081  RH  078%=      5-min Rain = 0
KNH1 100156Z 18007KT 12/08 A3015 RMK A01 T01180081  RH  078%=      5-min Rain = 0
KNH1 100157Z 19007KT 12/08 A3015 RMK A01 T01180081  RH  078%=      5-min Rain = 0
KNH1 100158Z 18007KT 12/08 A3015 RMK A01 T01170081  RH  078%=      5-min Rain = 0
KNH1 100159Z 19007KT 12/08 A3015 RMK A01 T01170081  RH  079%=      5-min Rain = 0
KNH1 100200Z 18007KT 12/08 A3015 RMK A01 T01160081  RH  079%=      5-min Rain = 0
KNH1 100201Z 18007KT 12/08 A3015 RMK A01 T01160081  RH  079%=      5-min Rain = 0
KNH1 100202Z 18007KT 12/08 A3015 RMK A01 T01160081  RH  079%=      5-min Rain = 0
KNH1 100203Z 18007KT 12/08 A3015 RMK A01 T01160081  RH  079%=      5-min Rain = 0
KNH1 100204Z 18007KT 12/08 A3015 RMK A01 T01160081  RH  079%=      5-min Rain = 0
KNH1 100205Z 18007KT 12/08 A3015 RMK A01 T01160081  RH  079%=      5-min Rain = 0
KNH1 100206Z 18007KT 12/08 A3015 RMK A01 T01170081  RH  079%=      5-min Rain = 0
KNH1 100207Z 18007KT 12/08 A3015 RMK A01 T01180082  RH  078%=      5-min Rain = 0
KNH1 100208Z 18007KT 12/08 A3015 RMK A01 T01190082  RH  078%=      5-min Rain = 0
KNH1 100209Z 18007KT 12/08 A3015 RMK A01 T01190082  RH  078%=      5-min Rain = 0
KNH1 100210Z 18007KT 12/08 A3015 RMK A01 T01200083  RH  078%=      5-min Rain = 0
KNH1 100211Z 18007KT 12/08 A3015 RMK A01 T01210083  RH  078%=      5-min Rain = 0
KNH1 100212Z 18006KT 12/08 A3015 RMK A01 T01210083  RH  078%=      5-min Rain = 0
KNH1 100213Z 18007KT 12/08 A3015 RMK A01 T01210083  RH  078%=      5-min Rain = 0
KNH1 100214Z 18007KT 12/08 A3015 RMK A01 T01210084  RH  078%=      5-min Rain = 0
KNH1 100215Z 18006KT 12/08 A3015 RMK A01 T01210084  RH  078%=      5-min Rain = 0
KNH1 100216Z 18006KT 12/08 A3015 RMK A01 T01210084  RH  078%=      5-min Rain = 0
KNH1 100217Z 18007KT 12/08 A3015 RMK A01 T01210084  RH  078%=      5-min Rain = 0
KNH1 100218Z 18006KT 12/09 A3015 RMK A01 T01210085  RH  079%=      5-min Rain = 0
KNH1 100219Z 18006KT 12/09 A3015 RMK A01 T01210085  RH  079%=      5-min Rain = 0
KNH1 100220Z 18005KT 12/09 A3015 RMK A01 T01200086  RH  079%=      5-min Rain = 0
KNH1 100221Z 18007KT 12/09 A3015 RMK A01 T01200086  RH  080%=      5-min Rain = 0
KNH1 100222Z 18006KT 12/09 A3015 RMK A01 T01210087  RH  080%=      5-min Rain = 0
KNH1 100223Z 18006KT 12/09 A3015 RMK A01 T01210087  RH  080%=      5-min Rain = 0
KNH1 100224Z 18006KT 12/09 A3015 RMK A01 T01210087  RH  080%=      5-min Rain = 0
KNH1 100225Z 17006KT 12/09 A3015 RMK A01 T01210088  RH  080%=      5-min Rain = 0
KNH1 100226Z 18006KT 12/09 A3015 RMK A01 T01210088  RH  080%=      5-min Rain = 0
KNH1 100227Z 18006KT 12/09 A3015 RMK A01 T01210088  RH  080%=      5-min Rain = 0
KNH1 100228Z 18006KT 12/09 A3014 RMK A01 T01210088  RH  080%=      5-min Rain = 0
KNH1 100229Z 18006KT 12/09 A3014 RMK A01 T01210088  RH  080%=      5-min Rain = 0
KNH1 100230Z 18006KT 12/09 A3014 RMK A01 T01200088  RH  080%=      5-min Rain = 0
KNH1 100231Z 18006KT 12/09 A3014 RMK A01 T01200088  RH  081%=      5-min Rain = 0
KNH1 100232Z 18006KT 12/09 A3014 RMK A01 T01200088  RH  081%=      5-min Rain = 0
KNH1 100233Z 18006KT 12/09 A3014 RMK A01 T01200088  RH  081%=      5-min Rain = 0
KNH1 100234Z 18007KT 12/09 A3014 RMK A01 T01200088  RH  081%=      5-min Rain = 0
KNH1 100235Z 18006KT 12/09 A3015 RMK A01 T01200088  RH  081%=      5-min Rain = 0
KNH1 100236Z 18007KT 12/09 A3014 RMK A01 T01190088  RH  081%=      5-min Rain = 0
KNH1 100237Z 18007KT 12/09 A3014 RMK A01 T01190088  RH  081%=      5-min Rain = 0
KNH1 100238Z 18007KT 12/09 A3014 RMK A01 T01190088  RH  081%=      5-min Rain = 0
KNH1 100239Z 18007KT 12/09 A3014 RMK A01 T01190088  RH  081%=      5-min Rain = 0
KNH1 100240Z 18007KT 12/09 A3014 RMK A01 T01190087  RH  081%=      5-min Rain = 0
KNH1 100241Z 18007KT 12/09 A3014 RMK A01 T01190088  RH  081%=      5-min Rain = 0
KNH1 100242Z 18007KT 12/09 A3014 RMK A01 T01190088  RH  081%=      5-min Rain = 0
KNH1 100243Z 18007KT 12/09 A3014 RMK A01 T01200088  RH  081%=      5-min Rain = 0
KNH1 100244Z 18007KT 12/09 A3014 RMK A01 T01200087  RH  081%=      5-min Rain = 0
KNH1 100245Z 17006KT 12/09 A3014 RMK A01 T01200087  RH  080%=      5-min Rain = 0
KNH1 100246Z 18007KT 12/09 A3014 RMK A01 T01200087  RH  080%=      5-min Rain = 0
KNH1 100247Z 18007KT 12/09 A3014 RMK A01 T01210087  RH  080%=      5-min Rain = 0
KNH1 100248Z 18007KT 12/09 A3014 RMK A01 T01200087  RH  080%=      5-min Rain = 0
KNH1 100249Z 18007KT 12/09 A3014 RMK A01 T01200087  RH  080%=      5-min Rain = 0
KNH1 100250Z 18006KT 12/09 A3014 RMK A01 T01200087  RH  080%=      5-min Rain = 0
KNH1 100251Z 18006KT 12/09 A3014 RMK A01 T01190087  RH  081%=      5-min Rain = 0
KNH1 100252Z 18007KT 12/09 A3014 RMK A01 T01190087  RH  081%=      5-min Rain = 0
KNH1 100253Z 18006KT 12/09 A3014 RMK A01 T01190087  RH  081%=      5-min Rain = 0
KNH1 100254Z 18006KT 12/09 A3014 RMK A01 T01190087  RH  081%=      5-min Rain = 0
KNH1 100255Z 18006KT 12/09 A3014 RMK A01 T01190087  RH  081%=      5-min Rain = 0
KNH1 100256Z 18007KT 12/09 A3014 RMK A01 T01180087  RH  081%=      5-min Rain = 0
KNH1 100257Z 18006KT 12/09 A3014 RMK A01 T01180087  RH  081%=      5-min Rain = 0
KNH1 100258Z 18007KT 12/09 A3014 RMK A01 T01180087  RH  081%=      5-min Rain = 0
KNH1 100259Z 18007KT 12/09 A3014 RMK A01 T01180087  RH  081%=      5-min Rain = 0
KNH1 100300Z 18007KT 12/09 A3014 RMK A01 T01190088  RH  081%=      5-min Rain = 0
KNH1 100301Z 18007KT 12/09 A3014 RMK A01 T01190088  RH  081%=      5-min Rain = 0
KNH1 100302Z 18007KT 12/09 A3014 RMK A01 T01190087  RH  081%=      5-min Rain = 0
KNH1 100303Z 18007KT 12/09 A3014 RMK A01 T01190087  RH  081%=      5-min Rain = 0
KNH1 100304Z 18007KT 12/09 A3014 RMK A01 T01180087  RH  081%=      5-min Rain = 0
KNH1 100305Z 18007KT 12/09 A3014 RMK A01 T01180088  RH  082%=      5-min Rain = 0
KNH1 100306Z 18008KT 12/09 A3014 RMK A01 T01180088  RH  082%=      5-min Rain = 0
KNH1 100307Z 18008KT 12/09 A3014 RMK A01 T01180088  RH  082%=      5-min Rain = 0
KNH1 100308Z 18008KT 12/09 A3014 RMK A01 T01180088  RH  082%=      5-min Rain = 0
KNH1 100309Z 18008KT 12/09 A3014 RMK A01 T01180088  RH  082%=      5-min Rain = 0
KNH1 100310Z 18008KT 12/09 A3014 RMK A01 T01180088  RH  082%=      5-min Rain = 0
KNH1 100311Z 18008KT 12/09 A3014 RMK A01 T01170088  RH  083%=      5-min Rain = 0
KNH1 100312Z 18008KT 12/09 A3014 RMK A01 T01170089  RH  083%=      5-min Rain = 0
KNH1 100313Z 18008KT 12/09 A3014 RMK A01 T01170088  RH  083%=      5-min Rain = 0
KNH1 100314Z 18008KT 12/09 A3014 RMK A01 T01170088  RH  083%=      5-min Rain = 0
KNH1 100315Z 18007KT 12/09 A3014 RMK A01 T01170088  RH  083%=      5-min Rain = 0
KNH1 100316Z 18007KT 12/09 A3014 RMK A01 T01170089  RH  083%=      5-min Rain = 0
KNH1 100317Z 18007KT 12/09 A3014 RMK A01 T01160088  RH  083%=      5-min Rain = 0
KNH1 100318Z 18007KT 12/09 A3014 RMK A01 T01170088  RH  083%=      5-min Rain = 0
KNH1 100319Z 18007KT 12/09 A3014 RMK A01 T01170088  RH  083%=      5-min Rain = 0
KNH1 100320Z 18007KT 12/09 A3014 RMK A01 T01160088  RH  083%=      5-min Rain = 0
KNH1 100321Z 18007KT 12/09 A3014 RMK A01 T01160088  RH  083%=      5-min Rain = 0
KNH1 100322Z 18007KT 12/09 A3014 RMK A01 T01160088  RH  083%=      5-min Rain = 0
KNH1 100323Z 19007KT 12/09 A3014 RMK A01 T01150087  RH  083%=      5-min Rain = 0
KNH1 100324Z 18007KT 11/09 A3014 RMK A01 T01140087  RH  084%=      5-min Rain = 0
KNH1 100325Z 18006KT 11/09 A3014 RMK A01 T01130087  RH  084%=      5-min Rain = 0
KNH1 100326Z 18007KT 11/09 A3014 RMK A01 T01130087  RH  084%=      5-min Rain = 0
KNH1 100327Z 18007KT 11/09 A3014 RMK A01 T01120087  RH  084%=      5-min Rain = 0
KNH1 100328Z 18007KT 11/09 A3014 RMK A01 T01120087  RH  085%=      5-min Rain = 0
KNH1 100329Z 18007KT 11/09 A3014 RMK A01 T01110087  RH  085%=      5-min Rain = 0
KNH1 100330Z 18007KT 11/09 A3014 RMK A01 T01110086  RH  085%=      5-min Rain = 0
KNH1 100331Z 18007KT 11/09 A3014 RMK A01 T01100086  RH  085%=      5-min Rain = 0
KNH1 100332Z 18007KT 11/09 A3014 RMK A01 T01100087  RH  085%=      5-min Rain = 0
KNH1 100333Z 18007KT 11/09 A3014 RMK A01 T01100087  RH  085%=      5-min Rain = 0
KNH1 100334Z 18006KT 11/09 A3014 RMK A01 T01100087  RH  086%=      5-min Rain = 0
KNH1 100335Z 18006KT 11/09 A3014 RMK A01 T01100087  RH  086%=      5-min Rain = 0
KNH1 100336Z 19006KT 11/09 A3014 RMK A01 T01090086  RH  086%=      5-min Rain = 0
KNH1 100337Z 18006KT 11/09 A3014 RMK A01 T01090086  RH  086%=      5-min Rain = 0
KNH1 100338Z 18006KT 11/09 A3014 RMK A01 T01090086  RH  086%=      5-min Rain = 0
KNH1 100339Z 18006KT 11/09 A3014 RMK A01 T01090086  RH  086%=      5-min Rain = 0
KNH1 100340Z 18006KT 11/09 A3014 RMK A01 T01090086  RH  086%=      5-min Rain = 0
KNH1 100341Z 19007KT 11/09 A3014 RMK A01 T01080086  RH  086%=      5-min Rain = 0
KNH1 100342Z 19007KT 11/09 A3014 RMK A01 T01080086  RH  086%=      5-min Rain = 0
KNH1 100343Z 19007KT 11/09 A3014 RMK A01 T01080086  RH  086%=      5-min Rain = 0
KNH1 100344Z 19007KT 11/09 A3014 RMK A01 T01070086  RH  087%=      5-min Rain = 0
KNH1 100345Z 19007KT 11/09 A3013 RMK A01 T01060085  RH  087%=      5-min Rain = 0
KNH1 100346Z 19007KT 11/09 A3013 RMK A01 T01070086  RH  087%=      5-min Rain = 0
KNH1 100347Z 19007KT 11/09 A3013 RMK A01 T01060086  RH  087%=      5-min Rain = 0
KNH1 100348Z 19007KT 11/09 A3013 RMK A01 T01060086  RH  087%=      5-min Rain = 0
KNH1 100349Z 19007KT 11/09 A3013 RMK A01 T01060086  RH  087%=      5-min Rain = 0
KNH1 100350Z 19007KT 11/09 A3013 RMK A01 T01060086  RH  087%=      5-min Rain = 0
KNH1 100351Z 19007KT 11/09 A3013 RMK A01 T01070086  RH  087%=      5-min Rain = 0
KNH1 100352Z 19007KT 11/09 A3013 RMK A01 T01070086  RH  087%=      5-min Rain = 0
KNH1 100353Z 19007KT 11/09 A3013 RMK A01 T01070086  RH  087%=      5-min Rain = 0
KNH1 100354Z 19007KT 11/09 A3013 RMK A01 T01070086  RH  087%=      5-min Rain = 0
KNH1 100355Z 19007KT 11/09 A3013 RMK A01 T01070086  RH  087%=      5-min Rain = 0
KNH1 100356Z 19007KT 11/09 A3013 RMK A01 T01070086  RH  087%=      5-min Rain = 0
KNH1 100357Z 19006KT 11/09 A3013 RMK A01 T01060086  RH  087%=      5-min Rain = 0
KNH1 100358Z 19007KT 11/09 A3013 RMK A01 T01060086  RH  087%=      5-min Rain = 0
KNH1 100359Z 19007KT 11/09 A3013 RMK A01 T01060085  RH  087%=      5-min Rain = 0
KNH1 100400Z 19007KT 11/09 A3013 RMK A01 T01050085  RH  087%=      5-min Rain = 0
KNH1 100401Z 20007KT 11/09 A3013 RMK A01 T01050085  RH  087%=      5-min Rain = 0
KNH1 100402Z 20008KT 11/09 A3013 RMK A01 T01050085  RH  087%=      5-min Rain = 0
KNH1 100403Z 20008KT 10/09 A3013 RMK A01 T01040085  RH  088%=      5-min Rain = 0
KNH1 100404Z 20008KT 10/09 A3013 RMK A01 T01040085  RH  088%=      5-min Rain = 0
KNH1 100405Z 20007KT 10/08 A3013 RMK A01 T01040084  RH  088%=      5-min Rain = 0
KNH1 100406Z 20007KT 10/09 A3014 RMK A01 T01040085  RH  088%=      5-min Rain = 0
KNH1 100407Z 20007KT 10/08 A3014 RMK A01 T01040084  RH  088%=      5-min Rain = 0
KNH1 100408Z 20007KT 10/09 A3014 RMK A01 T01040085  RH  088%=      5-min Rain = 0
KNH1 100409Z 20007KT 10/08 A3014 RMK A01 T01030084  RH  088%=      5-min Rain = 0
KNH1 100410Z 19007KT 10/08 A3014 RMK A01 T01030084  RH  088%=      5-min Rain = 0
KNH1 100411Z 20008KT 10/08 A3014 RMK A01 T01020084  RH  088%=      5-min Rain = 0
KNH1 100412Z 20007KT 10/08 A3014 RMK A01 T01020084  RH  088%=      5-min Rain = 0
KNH1 100413Z 20007KT 10/08 A3014 RMK A01 T01020084  RH  089%=      5-min Rain = 0
KNH1 100414Z 20008KT 10/08 A3014 RMK A01 T01020084  RH  088%=      5-min Rain = 0
KNH1 100415Z 20008KT 10/08 A3013 RMK A01 T01020084  RH  088%=      5-min Rain = 0
KNH1 100416Z 20008KT 10/08 A3013 RMK A01 T01020084  RH  089%=      5-min Rain = 0
KNH1 100417Z 20008KT 10/08 A3013 RMK A01 T01020084  RH  089%=      5-min Rain = 0
KNH1 100418Z 20008KT 10/08 A3013 RMK A01 T01010083  RH  089%=      5-min Rain = 0
KNH1 100419Z 20009KT 10/08 A3013 RMK A01 T01010083  RH  089%=      5-min Rain = 0
KNH1 100420Z 20008KT 10/08 A3013 RMK A01 T01010083  RH  089%=      5-min Rain = 0
KNH1 100421Z 20008KT 10/08 A3013 RMK A01 T01010083  RH  089%=      5-min Rain = 0
KNH1 100422Z 20008KT 10/08 A3013 RMK A01 T01010083  RH  089%=      5-min Rain = 0
KNH1 100423Z 20007KT 10/08 A3013 RMK A01 T01010083  RH  089%=      5-min Rain = 0
KNH1 100424Z 20007KT 10/08 A3013 RMK A01 T01010083  RH  089%=      5-min Rain = 0
KNH1 100425Z 20007KT 10/08 A3013 RMK A01 T01000082  RH  089%=      5-min Rain = 0
KNH1 100426Z 20008KT 10/08 A3013 RMK A01 T01000083  RH  089%=      5-min Rain = 0
KNH1 100427Z 20007KT 10/08 A3013 RMK A01 T01000083  RH  089%=      5-min Rain = 0
KNH1 100428Z 20007KT 10/08 A3013 RMK A01 T01010083  RH  088%=      5-min Rain = 0
KNH1 100429Z 20008KT 10/08 A3013 RMK A01 T01010083  RH  088%=      5-min Rain = 0
KNH1 100430Z 20007KT 10/08 A3013 RMK A01 T01010083  RH  089%=      5-min Rain = 0
KNH1 100431Z 20007KT 10/08 A3013 RMK A01 T01010083  RH  089%=      5-min Rain = 0
KNH1 100432Z 20007KT 10/08 A3013 RMK A01 T01010083  RH  088%=      5-min Rain = 0
KNH1 100433Z 20008KT 10/08 A3013 RMK A01 T01010083  RH  088%=      5-min Rain = 0
KNH1 100434Z 21008KT 10/08 A3013 RMK A01 T01010083  RH  089%=      5-min Rain = 0
KNH1 100435Z 21008KT 10/08 A3013 RMK A01 T01010083  RH  088%=      5-min Rain = 0
KNH1 100436Z 20009KT 10/08 A3013 RMK A01 T01010082  RH  088%=      5-min Rain = 0
KNH1 100437Z 21009KT 10/08 A3013 RMK A01 T01000082  RH  088%=      5-min Rain = 0
KNH1 100438Z 21009KT 10/08 A3013 RMK A01 T01000082  RH  088%=      5-min Rain = 0
KNH1 100439Z 21009KT 10/08 A3013 RMK A01 T01000082  RH  088%=      5-min Rain = 0
KNH1 100440Z 20009KT 10/08 A3013 RMK A01 T01010082  RH  088%=      5-min Rain = 0
KNH1 100441Z 21008KT 10/08 A3013 RMK A01 T01000082  RH  088%=      5-min Rain = 0
KNH1 100442Z 21008KT 10/08 A3013 RMK A01 T01000082  RH  088%=      5-min Rain = 0
KNH1 100443Z 21008KT 10/08 A3013 RMK A01 T01000082  RH  088%=      5-min Rain = 0
KNH1 100444Z 20008KT 10/08 A3013 RMK A01 T01000082  RH  088%=      5-min Rain = 0
KNH1 100445Z 20008KT 10/08 A3013 RMK A01 T01000081  RH  088%=      5-min Rain = 0
KNH1 100446Z 20008KT 10/08 A3013 RMK A01 T01000081  RH  088%=      5-min Rain = 0
KNH1 100447Z 20007KT 10/08 A3013 RMK A01 T01000081  RH  088%=      5-min Rain = 0
KNH1 100448Z 20007KT 10/08 A3013 RMK A01 T01000081  RH  088%=      5-min Rain = 0
KNH1 100449Z 20007KT 10/08 A3013 RMK A01 T00990080  RH  088%=      5-min Rain = 0
KNH1 100450Z 20007KT 10/08 A3013 RMK A01 T00990080  RH  088%=      5-min Rain = 0
KNH1 100451Z 20007KT 10/08 A3013 RMK A01 T00980080  RH  088%=      5-min Rain = 0
KNH1 100452Z 20007KT 10/08 A3013 RMK A01 T00970079  RH  089%=      5-min Rain = 0
KNH1 100453Z 20007KT 10/08 A3013 RMK A01 T00970079  RH  089%=      5-min Rain = 0
KNH1 100454Z 20007KT 10/08 A3013 RMK A01 T00970079  RH  089%=      5-min Rain = 0
KNH1 100455Z 20007KT 10/08 A3013 RMK A01 T00960079  RH  089%=      5-min Rain = 0
KNH1 100456Z 20007KT 10/08 A3013 RMK A01 T00960078  RH  089%=      5-min Rain = 0
KNH1 100457Z 20007KT 10/08 A3013 RMK A01 T00950079  RH  089%=      5-min Rain = 0
KNH1 100458Z 20006KT 10/08 A3013 RMK A01 T00950078  RH  089%=      5-min Rain = 0
KNH1 100459Z 20006KT 09/08 A3013 RMK A01 T00940078  RH  090%=      5-min Rain = 0
KNH1 100500Z 20006KT 09/08 A3013 RMK A01 T00930077  RH  090%=      5-min Rain = 0
KNH1 100501Z 20007KT 09/08 A3013 RMK A01 T00930078  RH  090%=      5-min Rain = 0
KNH1 100502Z 20006KT 09/08 A3013 RMK A01 T00930077  RH  090%=      5-min Rain = 0
KNH1 100503Z 20006KT 09/08 A3013 RMK A01 T00930077  RH  090%=      5-min Rain = 0
KNH1 100504Z 20005KT 09/08 A3013 RMK A01 T00920077  RH  090%=      5-min Rain = 0
KNH1 100505Z 20006KT 09/08 A3013 RMK A01 T00910076  RH  090%=      5-min Rain = 0
KNH1 100506Z 20006KT 09/08 A3013 RMK A01 T00900075  RH  091%=      5-min Rain = 0
KNH1 100507Z 20006KT 09/08 A3013 RMK A01 T00890076  RH  091%=      5-min Rain = 0
KNH1 100508Z 20006KT 09/08 A3013 RMK A01 T00890076  RH  091%=      5-min Rain = 0
KNH1 100509Z 20006KT 09/08 A3013 RMK A01 T00890076  RH  091%=      5-min Rain = 0
KNH1 100510Z 20006KT 09/08 A3013 RMK A01 T00890076  RH  091%=      5-min Rain = 0
KNH1 100511Z 20007KT 09/08 A3013 RMK A01 T00890076  RH  092%=      5-min Rain = 0
KNH1 100512Z 20007KT 09/08 A3013 RMK A01 T00890076  RH  092%=      5-min Rain = 0
KNH1 100513Z 21007KT 09/08 A3013 RMK A01 T00890076  RH  092%=      5-min Rain = 0
KNH1 100514Z 21007KT 09/08 A3013 RMK A01 T00890076  RH  091%=      5-min Rain = 0
KNH1 100515Z 21007KT 09/08 A3013 RMK A01 T00890076  RH  091%=      5-min Rain = 0
KNH1 100516Z 21007KT 09/08 A3013 RMK A01 T00890075  RH  091%=      5-min Rain = 0
KNH1 100517Z 21007KT 09/08 A3012 RMK A01 T00890075  RH  091%=      5-min Rain = 0
KNH1 100518Z 21007KT 09/08 A3012 RMK A01 T00890075  RH  091%=      5-min Rain = 0
KNH1 100519Z 21007KT 09/08 A3012 RMK A01 T00890075  RH  091%=      5-min Rain = 0
KNH1 100520Z 20007KT 09/08 A3012 RMK A01 T00880075  RH  091%=      5-min Rain = 0
KNH1 100521Z 20007KT 09/08 A3012 RMK A01 T00890075  RH  091%=      5-min Rain = 0
KNH1 100522Z 20007KT 09/08 A3012 RMK A01 T00880075  RH  091%=      5-min Rain = 0
KNH1 100523Z 20007KT 09/07 A3012 RMK A01 T00880074  RH  091%=      5-min Rain = 0
KNH1 100524Z 20007KT 09/07 A3012 RMK A01 T00880074  RH  091%=      5-min Rain = 0
KNH1 100525Z 20007KT 09/07 A3012 RMK A01 T00880074  RH  091%=      5-min Rain = 0
KNH1 100526Z 21008KT 09/07 A3012 RMK A01 T00880073  RH  091%=      5-min Rain = 0
KNH1 100527Z 21007KT 09/07 A3012 RMK A01 T00880074  RH  091%=      5-min Rain = 0
KNH1 100528Z 21008KT 09/07 A3012 RMK A01 T00880074  RH  091%=      5-min Rain = 0
KNH1 100529Z 21008KT 09/07 A3012 RMK A01 T00880074  RH  091%=      5-min Rain = 0
KNH1 100530Z 21008KT 09/07 A3012 RMK A01 T00890074  RH  090%=      5-min Rain = 0
KNH1 100531Z 21008KT 09/07 A3012 RMK A01 T00900074  RH  090%=      5-min Rain = 0
KNH1 100532Z 21008KT 09/07 A3012 RMK A01 T00900074  RH  090%=      5-min Rain = 0
KNH1 100533Z 20008KT 09/07 A3012 RMK A01 T00910074  RH  089%=      5-min Rain = 0
KNH1 100534Z 21007KT 09/07 A3012 RMK A01 T00910074  RH  089%=      5-min Rain = 0
KNH1 100535Z 21007KT 09/07 A3012 RMK A01 T00910074  RH  089%=      5-min Rain = 0
KNH1 100536Z 21008KT 09/07 A3012 RMK A01 T00900073  RH  089%=      5-min Rain = 0
KNH1 100537Z 21007KT 09/07 A3012 RMK A01 T00900073  RH  089%=      5-min Rain = 0
KNH1 100538Z 21008KT 09/07 A3012 RMK A01 T00900073  RH  089%=      5-min Rain = 0
KNH1 100539Z 21008KT 09/07 A3012 RMK A01 T00900073  RH  089%=      5-min Rain = 0
KNH1 100540Z 21009KT 09/07 A3012 RMK A01 T00900073  RH  089%=      5-min Rain = 0
KNH1 100541Z 21009KT 09/07 A3012 RMK A01 T00900073  RH  089%=      5-min Rain = 0
KNH1 100542Z 21009KT 09/07 A3012 RMK A01 T00900073  RH  089%=      5-min Rain = 0
KNH1 100543Z 21008KT 09/07 A3012 RMK A01 T00900073  RH  089%=      5-min Rain = 0
KNH1 100544Z 21009KT 09/07 A3012 RMK A01 T00900073  RH  089%=      5-min Rain = 0
KNH1 100545Z 21009KT 09/07 A3012 RMK A01 T00900073  RH  089%=      5-min Rain = 0
KNH1 100546Z 21008KT 09/07 A3012 RMK A01 T00900073  RH  089%=      5-min Rain = 0
KNH1 100547Z 21008KT 09/07 A3012 RMK A01 T00900073  RH  089%=      5-min Rain = 0
KNH1 100548Z 21009KT 09/07 A3012 RMK A01 T00900073  RH  089%=      5-min Rain = 0
KNH1 100549Z 21009KT 09/07 A3012 RMK A01 T00900073  RH  089%=      5-min Rain = 0
KNH1 100550Z 21009KT 09/07 A3012 RMK A01 T00900073  RH  089%=      5-min Rain = 0
KNH1 100551Z 21008KT 09/07 A3012 RMK A01 T00900072  RH  089%=      5-min Rain = 0
KNH1 100552Z 21009KT 09/07 A3012 RMK A01 T00900072  RH  089%=      5-min Rain = 0
KNH1 100553Z 21008KT 09/07 A3012 RMK A01 T00900072  RH  089%=      5-min Rain = 0
KNH1 100554Z 21009KT 09/07 A3012 RMK A01 T00890072  RH  089%=      5-min Rain = 0
KNH1 100555Z 21009KT 09/07 A3012 RMK A01 T00900072  RH  089%=      5-min Rain = 0
KNH1 100556Z 21008KT 09/07 A3012 RMK A01 T00900072  RH  089%=      5-min Rain = 0
KNH1 100557Z 21008KT 09/07 A3012 RMK A01 T00900073  RH  089%=      5-min Rain = 0
KNH1 100558Z 21009KT 09/07 A3011 RMK A01 T00900073  RH  089%=      5-min Rain = 0
KNH1 100559Z 21008KT 09/07 A3011 RMK A01 T00900073  RH  089%=      5-min Rain = 0

Page generated in 0.0774 seconds.